GEFSSE_500_meanwind_066.txt.gz
Wind_Speed
10 9 8 8 9 10 10 10 10 11 11 11 11 11 11 12 12 12 12 13 13 13 13 13 13 13 13 13 12 12 12 12 11 11 11 10 10 11 10 10 9 9 9
11 9 9 9 9 9 9 10 10 10 11 11 11 11 11 11 12 12 12 13 13 13 13 13 13 13 13 13 13 13 13 12 12 12 12 12 11 11 11 11 10 10 10
11 10 9 9 9 8 9 9 9 9 10 10 10 10 10 10 10 11 11 12 12 12 12 13 13 13 13 13 13 13 13 13 12 12 12 12 12 12 12 12 12 11 11
10 9 8 8 8 8 8 7 8 8 8 8 8 8 8 8 8 9 10 10 11 11 11 12 12 13 13 13 13 13 13 12 12 12 12 12 12 12 12 12 12 12 12
8 8 7 7 6 6 6 6 6 6 6 5 5 5 5 6 6 7 8 9 9 10 10 11 12 12 13 13 13 12 12 12 12 12 12 12 12 12 12 12 13 13 13
7 6 6 6 5 5 5 5 5 5 4 4 4 4 4 4 5 6 8 8 9 9 9 10 11 12 12 12 12 12 12 12 12 12 12 12 12 12 12 13 13 13 13
6 5 6 5 5 5 5 4 4 4 4 3 3 3 3 4 5 6 7 8 8 9 9 10 11 11 12 12 12 12 12 12 12 12 12 12 13 12 12 13 13 13 13
5 5 5 5 4 4 4 3 3 3 2 2 1 2 2 3 4 5 6 7 8 9 10 10 11 11 12 13 13 13 13 12 12 12 12 13 12 13 13 13 13 13 13
5 4 4 4 3 3 2 2 1 1 1 0 1 1 2 3 4 5 6 7 8 8 9 11 11 12 13 13 14 14 13 12 12 13 13 12 12 13 13 13 13 13 13
4 4 4 4 3 2 2 1 1 2 2 2 2 2 2 3 4 5 6 7 8 9 10 11 12 13 14 14 15 15 14 13 13 14 14 14 14 15 14 14 14 14 15
5 4 4 4 3 2 2 1 2 2 2 2 2 2 2 3 4 5 6 7 8 9 11 12 13 14 15 16 16 16 16 15 15 15 15 16 16 16 15 15 16 16 16
7 6 5 4 3 2 2 1 1 2 2 2 2 1 2 2 3 4 6 8 9 11 12 13 14 15 17 18 18 17 17 16 16 17 17 17 17 17 18 18 18 18 19
8 7 5 4 4 2 1 1 1 1 2 1 1 1 2 3 4 5 7 9 10 11 13 14 16 17 18 19 19 19 18 18 18 19 19 20 19 20 20 20 20 21 21
9 8 6 5 4 3 2 1 0 1 1 1 1 2 3 4 5 6 7 9 11 12 13 14 15 17 18 19 19 20 20 20 20 21 21 21 21 21 21 22 22 23 24
9 9 8 6 5 4 3 2 2 2 3 2 2 3 4 5 6 7 8 10 11 12 13 15 15 17 18 19 20 20 20 19 20 21 22 23 23 23 23 23 24 25 26
11 10 9 7 7 6 5 5 5 5 5 4 5 5 6 6 8 8 10 11 13 14 15 16 16 16 17 18 18 19 19 20 20 21 22 23 23 24 24 24 26 27 27
14 12 11 10 8 8 8 8 7 7 7 7 7 7 8 9 10 10 12 14 14 15 16 17 17 17 17 17 17 18 19 19 19 21 22 22 23 25 25 26 27 27 28
17 14 14 12 11 10 10 10 9 9 9 10 10 9 10 11 13 13 15 15 16 16 17 17 16 17 18 17 17 18 19 19 19 21 21 22 24 25 26 27 28 29 30
18 18 17 15 14 13 13 12 12 12 13 13 14 13 14 15 16 17 18 18 18 19 19 19 18 19 19 19 19 19 20 21 21 22 22 23 25 26 28 29 30 31 33
20 19 19 19 18 16 16 16 16 17 17 17 18 18 18 19 19 20 21 22 22 21 21 21 22 22 21 21 20 20 20 21 22 24 25 27 28 28 30 31 33 35 36
23 22 21 21 19 19 20 21 21 21 21 21 22 23 23 23 23 24 24 24 24 25 24 24 24 24 23 22 22 23 23 23 25 26 28 29 30 31 33 35 37 38 39
24 24 23 22 21 22 23 25 25 25 25 26 26 27 27 27 26 26 27 27 27 28 28 27 27 26 25 25 25 26 26 27 28 29 30 32 33 35 36 38 40 42 44
27 26 24 24 25 26 27 29 29 29 29 30 30 30 30 30 29 30 30 30 30 30 30 30 29 28 28 28 28 28 29 30 31 33 34 36 38 39 41 43 45 47 49
29 29 28 29 30 31 31 31 32 32 32 34 34 33 33 33 33 33 33 33 32 33 33 33 32 32 31 31 31 32 34 35 36 37 39 41 43 44 46 48 50 52 54
32 33 33 34 34 34 35 35 36 35 36 36 36 35 35 35 36 36 36 34 35 35 34 34 34 35 35 35 36 37 39 39 40 41 43 45 47 50 52 54 55 57 59
35 36 37 36 36 36 37 38 38 37 37 37 36 36 37 37 38 37 36 36 37 37 36 36 38 37 39 40 41 42 43 44 45 46 48 49 52 54 56 58 59 61 63

GEFSSE_500_meanwind_072.txt.gz
Wind_Speed
5 6 6 6 7 7 6 5 3 2 2 3 4 4 5 5 6 6 7 8 9 9 10 10 10 10 10 10 10 10 10 10 10 10 10 10 10 10 10 10 10 10 11
5 6 7 7 7 6 5 4 3 3 3 3 3 4 4 5 5 6 6 7 8 8 8 8 9 9 9 9 9 9 10 10 10 10 10 10 10 10 10 11 11 11 11
6 7 6 6 6 6 4 4 3 3 3 3 3 3 3 4 4 5 5 6 6 6 6 7 7 7 8 8 8 9 9 9 10 10 10 10 11 11 11 11 11 11 12
6 6 6 6 5 5 4 3 3 2 3 2 2 2 2 2 3 3 3 4 5 5 5 6 6 7 7 8 8 8 9 9 9 9 10 10 10 11 11 11 11 11 12
6 6 5 5 4 4 3 3 2 2 2 2 2 2 2 2 2 2 3 3 4 4 5 5 6 6 7 7 8 8 8 9 9 9 9 10 10 11 11 11 11 11 11
6 5 4 4 3 3 3 2 3 2 2 1 2 2 2 2 2 2 2 3 4 4 5 5 6 6 7 7 8 8 9 9 9 9 10 10 11 11 12 12 12 11 11
4 4 4 3 3 2 2 2 3 3 2 2 2 2 2 2 2 2 2 3 4 5 5 6 7 7 7 8 8 9 9 9 9 10 10 10 11 11 12 12 12 12 12
3 3 3 3 3 3 2 2 3 3 3 3 3 3 3 2 2 2 2 3 4 5 6 6 7 7 7 8 9 10 10 10 10 11 11 11 11 11 12 13 13 13 13
3 2 3 3 4 4 3 3 4 4 4 3 3 3 3 3 2 2 2 3 4 5 6 7 7 8 7 8 9 10 11 11 12 12 12 12 12 13 14 14 14 14 14
2 2 3 4 4 4 4 4 4 5 5 4 4 4 3 3 3 3 3 3 4 5 7 8 9 9 8 8 9 10 11 12 12 13 13 13 14 14 15 15 15 15 16
2 2 3 4 5 5 5 5 5 5 5 5 5 4 4 4 4 4 4 5 6 7 8 9 10 11 10 10 11 12 13 13 14 14 14 15 15 15 16 16 17 17 18
3 3 3 3 4 4 5 6 6 6 6 6 6 5 5 5 5 5 6 6 7 8 9 10 11 12 12 12 13 13 14 14 15 16 16 17 17 17 18 18 19 19 20
3 3 4 4 4 5 5 6 6 6 7 6 6 6 7 7 7 7 7 8 9 9 10 11 12 12 13 13 13 14 14 15 16 17 17 18 19 19 19 20 20 21 22
5 4 5 5 6 6 7 7 8 8 7 7 7 7 7 8 9 9 9 10 10 10 11 12 13 13 13 14 14 14 15 15 16 17 18 19 20 21 21 22 22 22 23
6 6 6 6 7 8 8 8 9 9 9 8 9 9 9 9 10 11 11 11 11 11 12 13 13 14 14 14 15 15 15 16 17 18 19 20 21 21 22 22 23 24 25
8 8 7 8 9 9 10 10 10 11 11 11 10 11 11 12 13 13 13 13 13 13 14 15 15 15 15 15 15 16 16 16 16 18 19 21 21 22 23 24 25 25 26
10 10 9 10 10 12 12 13 13 14 14 14 14 14 14 14 15 15 15 15 16 16 16 16 17 17 17 17 17 17 17 17 18 18 19 20 22 23 24 25 26 27 28
13 12 10 12 13 13 14 15 16 17 17 17 16 16 17 17 17 17 18 18 19 19 19 19 19 19 19 19 18 18 18 19 20 20 21 21 23 24 25 26 28 29 30
15 14 13 13 14 16 17 17 18 19 19 20 19 19 20 20 21 20 21 21 22 22 22 22 22 22 22 21 21 21 22 22 22 22 22 23 25 26 27 29 30 31 32
18 17 17 17 17 19 19 20 21 22 23 23 24 24 24 23 23 23 24 24 25 26 26 25 25 25 25 24 24 24 25 24 24 25 25 26 27 29 31 32 33 34 36
21 21 21 21 21 22 23 23 24 25 26 27 28 27 27 27 26 26 27 28 29 28 28 28 28 28 27 26 27 27 27 27 27 28 29 31 32 34 35 36 37 38 39
22 21 22 23 24 26 27 28 28 28 28 29 31 32 30 29 29 29 30 31 31 30 30 31 33 31 30 29 30 30 30 29 30 31 32 34 36 38 39 40 41 42 44
25 25 26 26 26 27 29 30 31 32 31 32 33 34 33 32 32 32 33 33 33 33 33 35 35 33 32 31 31 31 32 32 34 35 36 37 39 41 42 44 45 46 47
28 28 30 30 29 29 30 31 33 34 34 33 32 32 32 32 33 34 35 34 34 34 34 35 37 35 34 33 33 34 36 37 39 39 40 41 43 44 46 48 49 50 52
31 31 32 31 31 32 32 34 37 36 34 33 34 33 34 34 34 34 34 34 35 35 36 36 36 37 36 35 36 38 39 41 42 43 43 45 46 48 49 50 52 54 55
32 33 33 33 33 34 34 35 37 37 37 35 34 34 34 34 35 37 37 37 36 36 36 36 37 38 38 40 40 41 42 43 44 45 47 48 50 52 53 54 55 57 59

GEFSSE_500_meanwind_078.txt.gz
Wind_Speed
6 6 6 6 7 7 8 8 8 9 9 9 8 7 7 6 5 4 3 2 2 2 2 2 2 2 3 3 4 4 5 5 6 6 6 7 7 8 9 9 9 9 10
6 6 6 7 7 8 9 9 9 10 10 9 9 8 7 6 5 4 4 3 3 3 3 3 2 3 4 4 5 5 5 5 6 6 7 7 8 9 9 10 10 10 10
7 7 7 7 8 9 9 10 10 10 10 9 9 8 8 7 6 5 5 4 4 3 3 3 3 4 4 5 5 5 5 6 6 7 7 7 8 9 9 10 10 10 10
7 7 7 8 8 9 10 10 10 11 10 10 9 8 8 7 6 6 6 5 4 4 3 3 4 4 4 5 5 5 6 6 7 7 7 7 8 9 9 9 10 10 11
6 6 6 7 8 8 9 10 11 11 10 10 9 8 7 7 7 6 6 5 4 4 4 4 4 5 5 6 6 6 7 7 7 7 8 8 9 9 10 10 10 11 11
5 5 5 7 8 9 10 10 11 11 10 10 9 8 8 7 7 6 6 5 5 5 4 4 5 5 6 6 7 7 7 8 8 9 9 9 10 10 11 11 11 11 11
4 4 5 6 8 9 10 10 11 11 10 10 9 9 8 8 7 7 6 6 5 5 5 5 5 6 7 7 7 8 8 9 9 10 10 11 11 11 11 11 11 11 11
4 4 5 6 8 9 10 10 10 11 10 10 9 9 8 8 7 7 7 6 5 5 5 5 6 7 7 8 8 9 9 10 11 11 11 12 12 11 12 12 12 12 12
4 4 5 7 8 9 10 10 10 10 10 10 9 9 8 8 8 7 7 6 5 5 5 6 7 8 8 9 9 10 10 11 11 12 12 12 13 13 13 13 13 13 13
4 5 6 8 9 10 10 10 10 10 10 9 9 9 9 8 8 7 7 6 6 5 6 6 7 8 9 10 10 11 12 12 13 13 13 13 14 14 14 14 14 14 14
5 6 7 8 9 10 10 10 10 10 10 9 9 9 8 8 8 8 7 7 6 6 7 7 8 9 10 11 12 13 13 14 14 15 15 15 15 15 15 15 15 15 15
7 7 8 9 10 10 10 11 11 10 10 10 9 9 9 9 9 9 8 8 8 8 8 8 9 10 11 12 13 14 14 14 15 16 16 16 16 16 16 16 17 17 17
9 8 9 9 10 10 10 10 11 10 10 10 10 10 10 10 10 10 10 10 10 10 10 11 11 12 13 13 14 15 15 15 16 16 17 17 17 17 17 18 18 18 19
10 10 10 10 11 11 11 11 11 11 11 11 11 11 11 12 12 12 13 13 13 13 13 13 13 14 14 15 15 16 16 17 17 17 17 17 18 18 19 19 20 20 21
12 12 11 12 12 12 13 12 12 11 11 12 12 12 13 14 14 14 15 15 15 16 16 16 17 17 17 17 17 18 18 18 18 19 19 19 19 19 20 20 21 21 21
15 14 14 14 14 14 14 14 13 13 13 14 14 14 15 16 16 17 17 18 18 18 19 19 20 20 19 20 20 20 20 20 20 21 21 21 21 21 21 22 22 23 23
17 17 16 16 16 16 16 15 15 15 15 16 17 17 18 19 19 20 20 21 21 22 22 23 23 22 22 22 22 22 22 23 23 23 23 22 23 23 24 23 23 24 25
19 19 18 18 18 17 18 18 18 18 18 19 20 20 21 22 23 24 24 25 25 25 25 26 26 25 25 26 25 25 25 25 25 25 25 25 25 26 26 26 26 27 28
21 20 20 20 20 19 20 20 20 21 21 21 22 22 24 25 26 27 28 28 28 29 28 28 29 29 29 29 29 28 27 27 27 27 27 28 28 28 29 30 30 30 31
23 22 22 22 22 21 20 22 23 23 24 25 25 27 28 29 28 29 30 30 31 31 31 32 33 33 32 33 33 31 31 30 30 29 29 30 30 31 32 32 33 33 34
25 24 24 24 24 24 24 25 25 25 27 28 29 30 31 32 32 33 33 33 33 33 33 34 35 33 34 35 35 34 34 33 31 30 31 31 32 33 34 35 36 37 39
27 27 27 28 29 28 28 28 29 29 29 29 31 33 34 34 35 35 35 35 35 35 35 35 35 35 34 35 37 37 36 35 33 33 34 34 34 35 36 38 40 41 43
29 29 30 30 30 31 31 31 32 32 32 32 32 33 34 34 35 34 31 32 34 34 34 35 34 35 35 35 36 37 38 37 36 36 37 37 37 39 40 42 44 45 46
31 31 31 31 31 32 32 33 34 35 35 35 35 36 36 36 35 35 33 32 32 32 32 33 34 34 35 35 36 37 38 38 39 38 38 40 41 42 44 45 47 49 50
32 32 32 31 32 33 33 35 36 36 36 36 37 38 38 36 34 33 34 34 33 33 33 34 34 34 35 36 37 38 38 39 40 41 43 43 44 46 47 48 50 52 54
33 33 33 33 34 35 36 36 37 38 38 39 40 39 36 34 34 34 33 33 33 33 34 34 35 35 36 36 37 38 39 41 43 44 46 48 48 49 50 52 54 55 57

GEFSSE_500_meanwind_084.txt.gz
Wind_Speed
9 11 10 10 11 11 11 11 11 11 11 11 11 11 11 11 10 10 9 9 8 7 7 6 6 5 5 5 6 6 6 6 7 7 7 7 7 7 8 8 8 8 9
10 12 11 11 12 12 12 12 13 13 12 12 12 12 12 11 11 10 10 9 8 7 7 6 6 6 5 5 6 6 7 7 7 8 8 8 8 8 8 8 8 8 9
12 13 13 12 12 13 13 14 14 13 13 13 13 13 12 12 11 10 10 9 8 7 7 7 6 6 5 6 6 7 7 8 8 8 8 8 8 8 8 8 8 8 8
12 13 13 13 13 13 14 14 15 14 14 14 13 13 12 12 11 10 9 8 8 7 7 6 6 6 5 6 7 7 8 8 8 8 8 9 9 9 9 9 9 9 9
13 13 14 13 14 14 14 15 15 15 14 14 13 13 12 12 11 10 9 8 8 7 7 6 5 5 6 6 7 7 8 8 8 8 8 9 9 10 10 10 9 9 9
13 13 14 14 14 15 15 15 15 15 14 14 13 12 12 11 10 9 9 8 8 7 6 6 6 6 6 6 7 8 8 8 9 8 8 9 10 10 10 10 10 10 10
12 13 13 14 14 15 15 15 15 14 14 13 12 12 11 11 10 9 9 8 8 7 7 6 6 6 6 6 7 8 8 8 9 9 9 9 10 10 10 10 10 10 10
11 12 12 13 14 14 14 14 14 13 13 12 12 11 11 10 10 9 9 8 8 7 7 7 7 6 6 7 7 8 8 9 9 9 9 10 11 11 11 11 11 11 11
11 12 12 13 13 13 13 13 13 12 12 12 12 11 11 11 10 9 9 8 8 8 8 8 7 7 7 8 8 9 9 10 10 10 10 11 11 12 12 12 12 12 12
11 11 11 12 12 12 13 13 13 12 12 12 12 12 11 10 10 9 9 9 9 9 9 8 8 8 8 9 9 10 11 11 11 10 10 11 12 13 13 13 13 13 13
11 11 11 12 12 12 12 13 13 13 13 13 12 12 11 10 10 9 9 10 9 9 10 10 10 10 10 10 11 11 12 13 12 11 12 13 13 14 15 14 14 14 14
13 12 11 12 12 11 12 13 13 13 13 13 13 12 11 10 10 10 10 10 10 11 11 11 11 11 12 12 13 13 14 14 14 13 12 14 15 15 15 16 15 15 16
14 13 12 12 13 12 12 13 13 13 13 13 13 12 11 11 11 11 11 12 12 12 12 13 13 14 14 14 15 16 16 16 16 15 14 15 17 17 17 17 16 17 17
16 15 13 12 13 12 12 12 12 13 13 13 13 12 12 12 12 12 12 13 14 14 15 15 16 16 17 17 18 18 19 19 19 18 17 18 19 19 19 19 19 19 19
16 15 14 14 13 13 13 13 13 14 14 13 13 13 13 13 13 13 14 15 16 16 17 18 19 20 20 21 21 21 22 22 22 21 20 20 21 21 21 21 21 21 21
16 16 15 15 14 14 14 15 15 14 14 13 14 14 15 14 14 15 16 17 19 19 20 21 22 23 23 24 24 24 25 25 25 25 25 24 24 24 25 25 25 24 24
18 16 16 15 15 16 16 16 16 16 15 15 16 16 16 17 17 18 19 20 21 22 22 23 25 26 26 27 27 27 28 28 28 28 28 27 27 27 27 27 27 28 27
21 18 17 17 17 17 16 16 16 17 16 16 17 18 19 19 20 21 22 23 23 24 25 26 27 28 28 29 30 30 30 30 30 30 30 30 30 29 29 29 29 30 30
23 20 19 19 19 18 17 17 18 18 18 18 19 19 20 21 22 23 24 25 27 27 28 29 30 30 31 31 32 31 31 31 31 32 33 33 33 32 32 32 32 32 32
24 22 22 21 20 19 18 19 19 19 19 20 21 21 22 22 24 25 27 29 30 31 31 32 33 34 34 34 34 33 33 33 33 34 35 35 35 35 34 34 34 34 35
25 24 24 22 21 21 20 20 21 21 22 23 23 24 25 25 27 28 29 31 32 34 34 34 35 34 34 34 35 35 34 34 34 33 34 36 36 35 36 38 37 37 38
25 25 25 25 24 23 22 23 23 24 25 26 26 27 27 28 29 30 30 31 33 34 35 37 36 35 34 34 34 35 35 34 34 34 35 36 37 38 39 40 39 40 41
26 26 27 27 26 25 25 25 25 26 27 28 28 29 30 30 30 31 31 32 33 34 35 36 35 35 33 32 32 31 32 33 34 35 36 36 37 39 41 42 43 44 45
27 27 28 29 29 27 26 27 28 28 29 29 30 31 32 31 32 32 32 32 33 33 33 33 34 34 33 32 32 33 33 35 36 38 38 38 39 40 42 44 45 47 48
28 29 29 29 30 28 28 28 29 30 30 30 31 32 33 34 34 34 33 33 33 33 32 33 33 33 33 33 33 33 35 37 38 40 41 42 43 43 43 45 47 49 51
30 32 31 31 31 32 31 31 31 32 32 32 33 33 34 34 34 34 34 35 35 34 34 35 35 35 34 34 35 35 36 38 39 41 43 45 45 46 48 49 51 53 55

GEFSSE_500_meanwind_090.txt.gz
Wind_Speed
5 5 6 7 8 9 10 11 11 12 12 11 11 11 11 11 11 11 11 11 11 10 9 8 8 7 7 7 7 7 6 6 6 6 6 6 6 6 6 6 5 5 5
6 6 6 7 8 10 11 12 13 13 13 12 12 11 11 11 12 12 12 11 11 10 9 8 8 7 7 7 7 6 6 6 6 6 6 6 6 6 6 5 5 5 5
7 7 7 8 9 11 12 12 14 14 14 14 13 12 12 12 12 12 12 11 11 10 9 8 8 8 7 7 6 6 6 6 6 6 6 6 6 6 6 6 6 6 6
8 8 9 9 10 11 13 13 14 15 15 15 14 13 13 12 12 12 12 11 11 9 9 8 8 7 6 6 5 5 5 6 6 6 6 6 6 6 6 7 7 7 7
9 9 10 11 12 12 13 14 15 15 15 14 14 13 13 13 12 12 11 11 10 9 8 8 8 7 6 6 5 5 5 6 6 6 6 7 7 7 7 7 8 8 8
10 10 11 12 12 13 14 15 15 15 15 14 14 14 13 13 12 11 11 10 9 9 9 8 8 7 6 6 5 5 5 6 6 7 7 7 7 8 8 8 8 8 8
10 10 11 12 12 13 14 15 15 15 15 14 14 14 13 12 12 11 10 10 9 9 9 8 8 7 6 6 5 5 5 6 6 7 7 7 8 8 8 9 9 9 9
9 10 10 11 12 13 13 14 14 15 15 15 14 14 13 12 11 11 10 10 9 9 8 8 8 7 7 6 6 5 5 6 7 7 7 7 8 9 9 9 9 9 9
9 10 10 11 12 13 13 14 14 14 14 14 14 13 12 12 11 11 10 10 9 9 8 8 8 7 7 7 6 6 6 6 7 7 8 8 8 9 10 10 10 10 10
10 10 10 11 11 12 12 13 13 13 14 13 13 12 12 12 11 11 10 10 9 9 8 8 8 7 7 8 8 7 7 7 7 8 9 9 10 10 11 11 11 11 11
13 12 12 11 12 12 12 12 13 13 13 13 12 12 12 11 11 11 10 10 10 9 9 8 8 8 9 9 9 9 9 9 9 9 10 11 11 12 12 13 13 13 13
14 14 13 12 12 12 12 12 12 12 12 12 12 12 12 12 11 11 10 10 10 9 9 9 9 10 10 11 11 12 12 12 12 12 12 13 13 14 14 14 15 15 15
17 16 14 13 12 12 12 12 12 11 11 11 12 12 13 13 12 11 11 10 10 10 10 10 10 11 12 13 14 15 15 15 16 15 15 15 16 16 16 16 17 17 17
19 19 16 15 14 13 13 13 13 12 12 12 12 13 13 13 12 11 11 11 11 11 11 11 12 13 14 15 16 18 18 19 19 18 18 18 18 18 18 19 19 19 20
20 19 18 16 14 15 14 13 13 13 13 12 13 13 13 13 13 12 12 12 11 12 12 13 14 15 16 17 19 20 21 21 22 22 22 21 21 21 21 21 22 22 22
21 19 19 17 15 15 14 14 13 13 13 13 13 14 14 13 13 13 12 12 13 13 14 15 15 17 19 20 21 22 23 24 25 25 24 24 24 25 24 23 24 25 25
22 21 20 18 17 16 16 15 15 14 14 14 15 15 15 15 14 13 13 13 13 14 15 16 17 19 21 23 24 25 26 26 26 26 26 26 26 26 26 26 27 28 28
23 23 22 21 20 19 17 17 16 15 15 15 15 15 16 16 16 15 14 15 15 16 17 18 19 21 23 24 26 26 27 28 28 27 27 27 27 27 28 28 28 29 30
24 25 25 24 23 21 20 19 18 17 17 17 17 17 17 17 16 16 16 16 17 18 18 19 21 23 24 25 26 26 28 28 28 28 28 28 28 28 29 29 29 30 31
27 27 26 27 25 24 23 23 21 20 19 19 19 19 17 17 17 17 17 18 19 19 20 21 22 23 24 26 26 27 27 27 28 28 29 29 29 30 31 32 32 33 33
30 27 27 27 25 24 24 23 23 20 20 20 19 18 17 16 16 17 18 18 18 19 19 20 22 24 25 25 26 27 27 28 28 30 31 30 31 31 32 34 35 36 37
29 27 25 24 24 23 24 24 23 22 22 21 20 19 18 17 17 18 19 20 20 20 20 21 21 22 23 24 24 24 25 26 28 29 30 31 31 31 33 35 37 39 40
29 29 26 22 24 23 23 23 23 24 23 22 21 20 20 19 19 20 20 21 21 21 21 22 22 23 24 24 25 26 27 28 29 30 31 32 33 34 35 37 39 40 42
28 27 25 23 23 23 22 23 24 25 24 24 23 22 21 20 21 22 22 22 22 23 23 23 24 26 27 27 28 29 30 30 31 32 34 35 37 37 38 40 41 43 45
29 27 25 24 23 24 23 23 24 25 25 25 24 23 23 23 23 24 24 24 24 23 24 25 27 28 29 30 31 32 33 33 34 35 37 38 39 40 41 43 44 46 48
27 27 26 25 25 25 24 23 24 25 25 25 25 24 25 25 25 25 25 26 26 25 27 27 29 30 32 33 34 35 36 37 37 38 39 41 42 43 44 45 47 49 51

GEFSSE_500_meanwind_096.txt.gz
Wind_Speed
3 3 5 6 7 7 7 6 5 5 4 5 5 6 6 6 7 7 8 9 10 10 10 10 9 9 8 8 8 8 8 8 7 7 7 7 7 7 7 6 6 6 6
3 4 5 7 7 7 7 7 6 6 5 5 6 6 6 7 7 7 8 9 9 9 10 9 8 8 8 8 7 7 7 7 7 7 7 7 7 7 6 6 6 6 6
4 5 6 8 8 8 8 7 7 7 7 6 7 7 7 8 8 8 8 8 9 9 8 8 7 7 7 7 7 7 6 7 7 7 7 6 6 6 6 6 6 6 7
5 6 7 8 8 8 8 8 8 8 8 8 8 8 8 9 9 9 8 8 8 7 7 6 6 6 6 6 6 6 5 6 6 6 7 7 6 6 6 6 6 7 7
7 7 8 9 9 9 9 9 9 9 9 9 9 9 10 10 10 9 9 8 7 6 6 6 6 6 6 6 5 5 5 5 6 6 6 7 7 6 6 6 7 7 7
8 9 10 10 10 10 10 10 10 10 10 10 10 11 11 10 10 9 9 8 7 6 6 6 6 6 6 6 5 5 5 5 5 6 6 6 7 6 6 7 7 8 8
10 10 10 10 10 10 10 10 10 10 10 11 11 11 11 11 11 10 9 8 7 6 6 6 6 6 6 6 6 5 5 5 6 6 7 7 7 7 7 7 7 8 8
11 11 10 11 11 10 10 10 11 11 11 11 12 12 12 12 11 10 9 8 8 7 7 6 6 6 6 6 6 6 6 6 6 6 7 7 7 7 7 8 8 9 9
12 11 10 10 10 10 10 11 11 11 11 12 12 12 12 12 11 10 9 9 8 8 7 6 6 6 6 6 6 7 7 6 6 6 7 7 8 8 9 9 9 9 9
11 11 10 10 10 10 10 10 11 11 12 12 12 12 12 12 11 11 10 9 9 8 8 7 7 6 7 7 7 7 7 7 7 8 8 8 9 10 10 11 11 11 11
12 11 10 10 10 11 11 12 11 12 12 12 13 13 13 12 12 11 11 10 10 9 9 8 8 8 8 7 7 8 8 8 9 9 10 10 11 12 12 13 13 13 13
13 11 10 11 11 11 11 12 13 13 13 13 13 13 13 13 13 12 12 11 11 11 10 10 10 9 9 9 9 9 10 10 11 12 12 13 14 14 14 14 15 15 15
14 12 11 11 11 11 12 13 13 14 14 14 14 14 14 14 14 13 13 13 13 12 12 12 12 11 11 11 11 11 11 12 13 14 15 15 16 17 16 16 17 18 18
15 14 13 14 13 12 13 13 13 14 16 15 15 15 15 15 15 15 15 15 15 14 14 13 13 13 13 13 13 13 14 14 15 15 16 17 18 19 20 20 20 20 20
16 16 16 16 15 14 14 14 14 14 15 17 16 16 17 17 17 16 16 17 16 16 15 15 15 15 14 15 15 15 16 16 17 18 19 20 21 21 22 22 22 22 23
16 16 16 16 16 16 16 15 16 16 16 18 18 18 18 19 19 18 18 18 17 17 16 16 17 16 16 16 17 17 17 19 19 21 22 22 23 23 23 24 24 24 24
18 17 16 15 17 18 18 19 18 19 19 19 20 20 20 20 21 20 20 19 19 18 18 18 18 18 18 19 19 20 20 21 21 22 23 24 24 25 25 25 25 25 26
19 18 18 17 18 18 20 21 20 21 21 21 22 22 22 22 22 22 21 21 20 20 21 21 20 20 20 21 21 22 22 22 23 24 24 25 25 26 27 26 26 27 28
22 21 21 21 21 20 21 23 22 23 23 24 24 24 24 25 24 24 23 23 22 22 22 23 22 22 22 22 22 22 23 24 25 25 25 25 25 26 27 27 28 29 29
23 23 22 22 22 23 24 24 25 26 26 26 26 27 26 26 26 26 26 25 25 24 24 23 23 23 23 23 23 23 24 25 26 26 26 26 26 27 27 28 28 29 31
24 24 24 24 24 24 25 25 25 27 29 29 28 28 28 27 28 28 27 27 26 26 26 25 25 24 24 24 24 25 26 26 27 27 27 27 27 27 28 29 29 31 32
25 25 26 25 25 25 26 26 27 28 28 28 29 27 27 28 28 28 27 27 27 27 26 27 27 27 27 27 27 27 27 27 28 28 28 29 29 30 31 31 33 34 35
26 26 26 26 26 26 26 27 28 28 29 30 30 30 29 28 26 27 27 25 25 25 25 25 26 26 28 28 27 28 28 29 30 30 31 31 32 33 34 35 36 37 38
27 26 27 27 27 27 27 27 27 28 26 26 27 28 28 27 27 27 26 26 26 25 25 26 27 27 27 28 28 28 30 31 32 32 33 34 34 36 37 38 39 39 40
27 27 27 27 27 26 25 26 25 25 24 25 26 26 26 27 27 27 26 26 26 26 26 27 27 28 29 29 30 31 32 33 34 35 36 37 38 38 40 41 42 42 43
27 27 27 27 27 26 26 25 24 22 22 23 25 26 26 27 28 28 27 27 28 29 30 30 29 30 31 32 32 34 35 36 37 38 39 39 40 41 42 43 44 45 45

GEFSSE_500_meanwind_102.txt.gz
Wind_Speed
9 9 11 11 10 10 9 9 9 10 10 9 8 6 5 4 3 2 2 1 0 0 1 1 2 2 1 1 1 1 2 2 2 3 3 3 3 3 3 3 4 4 4
11 11 12 12 12 11 10 9 10 10 10 9 8 7 6 5 4 3 2 2 2 1 1 1 2 2 1 1 1 1 1 1 2 2 2 2 3 3 3 3 3 4 4
13 12 14 13 13 12 11 11 11 11 11 10 9 8 7 6 5 4 4 3 3 3 3 3 2 2 2 2 1 1 1 1 1 1 2 2 2 3 3 3 3 3 4
13 13 15 15 14 13 12 12 12 12 12 11 10 10 8 8 7 6 5 5 5 4 4 4 4 3 3 2 2 1 1 1 1 2 2 2 2 3 3 3 4 4 4
13 14 15 15 14 13 13 12 13 13 12 12 12 11 10 9 8 7 7 7 6 6 6 6 5 5 4 3 3 2 1 1 2 2 2 2 3 3 3 4 4 4 4
14 15 15 15 15 14 13 13 13 13 13 13 13 12 12 11 10 9 9 8 8 8 7 7 7 6 5 4 4 3 3 2 2 2 3 3 3 3 4 4 4 5 5
15 16 16 17 16 15 15 14 14 14 14 13 13 13 13 13 12 11 11 10 10 9 9 8 8 7 6 5 5 4 4 4 4 4 4 4 4 4 4 4 5 5 5
16 17 18 17 17 16 16 15 15 15 14 14 14 14 14 14 13 13 12 11 11 11 10 10 9 8 7 7 6 6 5 5 5 5 5 5 5 5 5 5 6 6 6
15 16 16 17 17 17 17 17 16 16 15 15 15 15 15 15 14 14 13 13 12 12 11 11 10 9 9 8 8 8 7 7 7 6 6 6 6 6 7 7 7 7 8
16 16 16 17 18 19 19 18 18 17 16 16 16 15 15 15 15 15 14 14 13 13 13 12 11 11 10 10 10 9 9 9 8 8 8 8 8 8 8 9 9 9 9
17 16 18 18 18 18 18 19 19 18 18 17 17 16 16 16 16 16 15 15 14 14 13 13 13 12 12 12 11 11 11 11 10 10 10 10 10 10 11 11 11 12 12
19 18 19 18 18 19 19 19 19 19 19 18 17 16 16 16 17 17 16 16 16 15 15 15 14 14 14 13 13 13 13 13 12 12 12 12 12 12 13 14 14 14 14
20 19 19 19 19 19 19 20 21 20 20 19 18 17 17 17 17 17 17 17 17 17 16 16 16 16 16 16 15 15 15 15 14 14 14 14 14 14 14 15 15 16 16
20 20 19 20 20 20 21 22 22 22 21 20 20 19 19 19 19 18 19 18 18 18 18 18 18 18 18 17 17 16 16 16 16 16 16 16 16 16 16 17 17 18 18
22 21 19 19 20 21 21 22 23 22 22 21 20 20 20 20 20 20 20 20 20 19 19 19 20 20 20 19 18 18 18 18 19 18 18 18 18 18 19 19 19 20 21
22 21 21 20 21 21 23 23 22 23 21 21 21 21 21 21 21 22 22 22 21 22 21 21 22 22 21 21 20 20 20 20 21 20 20 20 20 20 20 21 21 21 22
23 23 22 22 22 23 24 25 23 23 23 23 23 23 23 23 23 24 23 23 23 23 23 23 23 23 22 22 22 22 22 22 22 22 22 22 22 23 23 23 23 23 23
25 24 24 23 23 24 25 25 25 25 25 25 26 25 25 25 25 24 24 24 25 25 24 24 24 24 24 24 24 24 24 24 24 24 25 25 25 25 25 25 25 25 25
27 26 24 23 24 26 26 25 25 26 26 26 27 27 27 27 26 26 26 26 26 26 26 26 26 26 26 26 26 26 25 25 26 26 27 27 27 27 26 26 26 27 27
28 26 26 24 24 25 26 25 24 25 25 26 26 26 27 28 28 29 28 28 28 28 28 29 28 29 29 29 28 28 28 28 28 28 28 29 28 28 28 28 28 29 29
30 28 27 26 25 25 25 25 24 24 24 25 26 27 28 28 28 29 27 27 29 30 30 31 31 30 30 31 30 30 30 30 30 30 31 31 31 31 31 30 30 31 32
30 29 28 27 26 26 26 25 25 26 27 27 28 28 28 28 29 28 28 28 30 31 31 31 32 32 32 32 31 31 30 31 31 32 32 33 34 33 33 33 33 34 35
31 30 29 28 27 27 28 28 27 27 28 28 28 29 28 28 29 30 30 31 32 32 32 32 32 33 33 33 33 33 33 33 33 32 34 35 35 34 35 35 36 36 37
31 30 29 29 29 29 29 30 28 27 27 27 28 29 29 29 30 32 32 33 33 33 33 33 33 33 33 33 33 33 33 33 33 33 33 34 34 35 35 36 38 39 39
31 30 30 30 31 31 30 30 29 28 28 27 27 28 30 30 30 31 33 33 33 34 33 33 33 34 33 34 34 33 33 34 34 34 34 35 36 36 37 38 39 41 41
30 30 30 31 31 31 30 30 30 30 29 28 28 28 29 31 32 33 34 35 35 34 34 34 34 35 34 34 35 35 35 35 35 36 36 36 37 37 39 40 41 42 42

GEFSSE_500_meanwind_108.txt.gz
Wind_Speed
10 11 11 10 11 11 11 12 12 11 11 11 11 11 11 10 9 8 8 7 6 5 4 3 3 2 1 1 1 1 1 1 1 1 2 2 3 3 3 3 3 3 3
12 13 13 13 13 13 13 13 13 13 13 13 13 13 12 12 11 10 9 9 8 7 6 5 4 3 2 2 2 2 1 1 0 1 1 2 2 2 2 3 3 3 3
13 14 15 14 14 14 14 15 14 14 14 14 14 14 14 13 12 11 11 10 9 8 7 6 5 4 4 3 3 3 2 2 1 0 1 1 2 2 2 2 2 3 3
14 15 15 15 16 16 16 16 15 15 15 15 15 15 15 15 14 13 12 11 10 9 8 7 6 5 5 4 4 4 3 3 2 1 1 1 2 2 2 2 3 3 3
14 15 15 15 16 17 18 17 17 16 15 16 16 16 16 16 15 15 14 13 12 10 9 8 8 7 6 6 6 5 5 4 3 2 1 2 2 2 2 2 3 3 4
14 16 16 15 16 18 18 18 18 17 16 16 17 17 18 18 17 16 15 14 13 12 11 10 9 8 8 7 7 7 6 5 4 3 3 3 3 3 3 3 3 3 4
15 16 17 17 18 19 20 19 19 18 18 18 18 18 18 18 18 17 16 15 14 13 12 11 10 10 9 9 8 8 7 7 6 5 4 4 4 4 4 4 4 4 5
16 15 16 17 18 19 20 21 21 21 20 19 19 19 19 19 18 17 17 16 15 14 13 13 12 11 11 10 10 9 9 8 7 6 5 5 5 5 5 6 6 6 6
17 16 16 18 19 20 20 21 22 22 21 21 20 20 20 20 19 18 18 17 16 15 15 14 13 12 12 12 11 11 10 9 8 8 7 7 7 6 6 7 7 8 9
18 18 17 18 19 19 20 20 21 22 22 22 22 21 21 21 20 19 19 18 18 17 16 16 15 14 13 13 13 12 12 11 10 9 8 8 8 8 8 8 9 9 10
19 18 18 19 20 20 22 22 21 22 23 23 23 23 22 22 21 20 20 20 19 18 18 17 16 15 15 14 14 14 13 12 11 11 10 9 10 10 10 10 10 11 11
22 20 19 20 20 21 21 22 23 23 24 23 24 24 24 23 22 21 21 21 20 19 19 18 17 17 16 16 15 15 15 14 13 12 12 11 12 12 12 12 12 12 12
23 22 21 20 21 22 22 22 22 23 24 24 25 24 24 23 23 22 22 21 21 20 20 19 19 18 18 17 17 17 16 15 15 14 14 14 14 13 13 13 14 14 14
24 23 21 22 23 24 23 23 24 23 24 24 24 24 24 23 23 22 22 22 22 21 21 20 20 20 20 19 19 18 18 17 16 15 15 15 15 15 15 15 16 16 16
26 25 25 24 24 24 23 24 24 24 24 25 25 25 25 24 24 23 22 23 22 22 22 22 21 21 21 21 20 20 19 19 18 17 17 17 18 17 17 17 17 18 18
27 27 28 26 25 24 24 24 24 24 24 25 25 25 24 24 25 24 22 22 22 22 23 22 22 22 21 22 22 21 21 21 21 20 19 19 19 20 19 19 19 20 20
28 28 28 27 26 26 25 25 25 25 24 24 25 24 24 25 25 26 23 22 23 24 23 23 23 23 23 23 24 23 23 22 22 22 21 21 21 21 21 21 21 21 22
29 30 29 29 29 26 25 25 25 25 24 24 25 24 24 24 25 26 25 25 24 24 24 24 24 24 25 25 24 24 24 24 24 24 24 23 23 23 24 24 24 24 24
30 30 31 30 29 28 27 27 27 26 26 26 26 26 25 24 25 26 27 27 26 26 25 25 26 26 27 26 26 26 25 26 25 25 26 26 26 26 25 26 26 27 27
33 32 31 31 31 29 28 27 25 25 25 26 27 26 25 25 26 26 27 27 27 27 26 26 26 27 28 28 28 27 27 28 28 28 28 29 29 29 29 28 28 29 29
34 34 32 32 32 31 30 27 24 24 24 25 26 26 26 27 27 28 27 27 28 28 27 27 27 28 28 29 28 27 28 29 30 30 30 31 31 31 31 31 31 31 31
34 34 34 34 33 32 30 27 26 25 25 24 25 26 27 28 29 27 28 29 29 29 29 29 29 30 30 30 30 30 30 30 30 31 32 32 32 32 32 33 34 34 34
33 34 34 33 33 32 30 29 27 27 27 27 25 25 27 28 30 31 30 30 31 31 31 31 30 31 31 31 31 32 32 32 32 33 33 34 34 35 35 35 36 37 37
32 33 33 34 33 32 32 32 30 27 27 28 27 27 27 28 29 30 30 31 32 32 31 31 32 32 32 33 34 34 34 34 34 34 35 36 35 36 37 37 38 39 39
31 32 33 34 34 33 32 32 31 30 30 28 28 29 29 29 28 28 29 30 32 33 32 33 33 33 33 35 35 36 36 36 36 37 37 37 38 38 39 39 39 39 39
29 31 32 33 33 34 34 33 32 31 31 30 29 30 30 30 29 29 29 30 33 34 34 34 35 36 36 36 36 36 37 37 37 38 38 39 39 39 40 40 39 40 40

GEFSSE_500_meanwind_114.txt.gz
Wind_Speed
6 5 5 4 4 5 6 7 8 9 10 10 10 10 10 11 10 10 10 11 11 10 9 8 7 6 6 5 5 4 3 3 2 1 1 1 1 1 2 2 3 3 3
7 7 6 6 6 6 7 8 9 10 11 12 12 11 12 12 12 12 12 12 12 11 11 10 8 7 7 6 5 4 3 3 2 1 1 1 1 1 2 2 2 3 3
8 8 8 8 7 8 8 9 10 11 12 13 13 13 13 13 13 13 13 13 13 13 12 11 10 9 8 7 6 5 4 3 2 2 1 1 0 1 1 2 2 2 2
9 9 9 9 9 9 10 10 11 12 13 13 14 14 14 14 14 14 14 14 14 13 13 12 11 10 9 8 7 6 5 4 3 2 2 1 0 1 1 1 2 2 2
10 10 10 10 10 10 11 12 12 13 14 14 15 15 16 15 15 15 15 15 15 14 13 13 12 11 9 8 7 6 6 5 4 3 3 2 1 1 2 2 2 2 2
11 11 10 10 11 12 12 13 14 14 15 15 16 17 17 16 16 16 16 16 16 15 14 13 13 12 10 9 8 7 6 6 5 4 4 3 3 3 3 3 3 2 2
12 12 11 12 12 13 13 14 15 15 16 17 17 18 18 18 17 17 17 17 17 16 15 14 14 13 11 10 9 8 7 7 6 6 5 5 4 4 4 4 4 4 3
14 14 13 13 14 14 14 15 16 16 17 17 18 18 18 18 18 18 18 18 17 17 16 15 15 14 13 11 11 9 8 8 8 7 7 6 6 5 5 5 5 4 4
16 16 15 16 15 15 16 16 17 18 18 19 19 19 20 20 20 19 19 19 18 18 17 16 16 15 14 13 12 11 10 10 9 9 8 8 7 7 7 6 6 6 5
18 18 17 18 16 17 17 17 18 18 18 19 20 20 21 21 21 21 20 20 19 19 18 17 17 16 15 14 13 12 11 11 10 10 10 9 9 8 8 8 7 7 6
20 20 18 18 18 18 18 18 18 19 19 19 20 20 21 22 22 22 22 21 21 20 19 18 18 17 16 15 14 13 12 12 12 12 11 11 11 10 10 9 9 9 8
22 21 20 19 19 19 19 20 19 19 19 20 21 21 22 22 22 22 23 23 22 22 21 20 19 18 17 17 16 15 14 13 13 13 13 13 12 12 11 11 11 10 10
24 24 22 20 21 21 21 21 20 20 20 21 22 22 23 23 23 23 24 24 23 23 22 21 20 19 19 18 17 16 15 15 15 14 14 14 14 14 13 13 12 12 11
23 25 26 23 22 22 22 21 22 21 21 20 21 22 23 23 23 22 23 24 23 23 22 21 21 20 20 19 18 17 17 16 16 15 16 15 15 15 15 15 14 13 13
25 24 25 25 23 23 23 23 23 23 23 22 21 22 22 23 23 23 23 23 24 24 23 21 20 21 21 20 20 19 19 18 17 17 17 17 16 16 16 16 16 15 14
26 26 26 25 24 24 25 24 23 24 24 22 22 23 23 23 23 22 22 22 23 23 22 21 20 20 20 20 20 20 19 19 18 18 18 18 19 19 18 17 17 17 17
28 28 27 27 25 25 26 25 24 25 24 24 24 24 24 24 25 24 23 23 22 22 22 22 20 20 20 20 20 20 20 20 20 20 20 20 20 20 20 20 20 20 19
29 30 28 28 27 26 26 26 26 26 26 25 26 25 25 25 24 23 23 23 22 22 23 23 21 21 21 21 21 22 22 22 21 21 21 22 22 22 22 22 22 22 22
30 30 28 29 29 29 28 28 28 27 27 26 25 25 25 26 25 24 24 24 24 24 24 24 24 23 22 22 22 23 24 23 23 23 23 23 23 23 24 24 24 24 24
31 31 30 30 29 29 30 29 28 26 26 25 26 25 25 26 25 26 25 25 24 24 24 25 26 25 24 24 23 24 25 25 24 24 24 25 25 25 25 26 26 26 26
31 31 31 31 32 30 29 30 28 28 27 25 25 26 25 24 25 25 26 26 26 26 25 25 26 26 25 25 26 26 26 27 26 26 26 26 25 26 27 28 28 28 28
29 30 30 30 31 31 30 29 29 29 27 27 25 25 24 24 23 26 27 27 26 26 27 26 26 26 27 26 27 28 28 28 28 28 28 28 27 27 28 28 29 30 31
29 30 30 29 29 30 30 30 29 29 28 26 25 25 24 23 22 23 25 25 24 23 25 26 27 26 26 26 26 27 28 29 30 30 30 30 30 29 29 31 31 31 32
28 28 29 29 29 29 30 29 29 28 27 26 24 23 22 23 24 24 24 25 24 25 25 25 25 27 27 27 27 27 28 29 30 31 32 32 32 32 31 32 33 34 34
28 28 28 28 28 29 29 29 30 30 29 28 27 25 23 24 25 24 24 24 25 26 26 26 27 28 28 29 30 31 31 30 30 32 32 33 34 34 33 34 35 34 35
26 27 26 28 28 28 28 29 29 29 29 28 27 26 26 26 25 24 25 25 25 26 27 28 29 29 28 29 30 32 32 32 32 33 34 34 35 36 36 35 36 36 36

GEFSSE_500_meanwind_120.txt.gz
Wind_Speed
5 4 4 4 4 4 4 4 3 3 4 4 4 3 4 4 5 6 7 8 10 10 11 11 11 10 10 9 8 7 6 6 5 4 4 3 3 3 3 3 3 2 2
5 5 6 6 6 6 5 5 5 4 4 4 5 5 5 6 6 7 7 8 9 10 11 11 10 10 10 9 8 7 7 6 5 4 3 3 3 3 3 3 2 2 2
6 6 7 8 8 7 7 6 6 6 6 6 7 7 7 7 7 7 8 9 9 10 10 11 10 10 9 9 8 7 6 6 5 4 3 3 2 2 2 2 2 2 2
8 7 8 8 8 8 8 8 7 7 8 8 8 8 8 8 8 9 9 9 10 10 10 11 10 10 9 9 8 7 6 6 5 4 4 3 2 2 2 2 2 2 2
10 9 9 10 9 9 8 9 9 8 9 9 9 9 9 9 10 10 10 10 10 10 10 11 10 10 9 9 8 8 7 6 6 5 4 4 3 2 2 2 2 3 3
11 11 11 11 10 10 10 10 10 10 10 10 11 11 11 11 11 11 11 11 11 10 11 11 11 10 10 9 9 8 7 6 6 6 5 4 4 3 3 2 2 3 3
11 12 12 13 12 11 10 10 11 11 11 12 12 13 13 12 13 13 12 12 12 12 12 12 11 11 11 10 9 9 8 7 7 7 6 6 5 4 4 3 3 3 3
13 13 13 13 13 12 11 11 11 12 13 13 14 14 15 15 15 14 14 13 13 13 13 13 12 12 11 11 10 10 9 8 8 8 7 7 6 5 5 4 3 3 3
15 14 14 14 13 13 13 13 13 13 14 14 15 16 16 16 16 16 15 15 15 15 15 14 14 13 12 12 11 11 10 9 9 9 9 8 8 7 6 5 4 4 4
16 16 16 15 14 14 15 14 15 15 15 16 16 17 17 17 18 17 17 17 17 17 16 16 16 15 14 13 13 13 12 11 10 10 9 9 9 8 7 7 6 6 5
19 18 18 17 16 16 16 16 16 17 17 18 18 18 19 19 19 19 19 19 19 19 18 18 17 17 16 15 15 14 13 13 12 12 11 10 10 10 9 9 8 8 7
20 19 19 19 18 18 17 17 18 18 19 19 20 20 20 20 20 20 20 20 20 20 20 19 19 18 18 17 16 15 15 14 14 13 13 12 12 12 11 10 10 9 9
22 20 19 20 19 19 19 20 20 20 20 20 21 21 21 21 21 21 21 21 21 21 21 20 19 19 19 18 17 17 17 16 16 15 14 14 13 13 13 12 12 11 11
24 23 21 20 20 20 21 21 22 21 21 21 20 21 22 22 23 22 21 22 22 22 21 20 19 19 19 19 18 18 18 18 18 17 16 15 15 14 14 14 13 13 13
24 23 22 22 23 23 22 22 22 22 22 22 22 21 22 22 23 24 23 22 22 22 22 22 21 20 20 20 19 19 19 19 19 19 18 17 17 16 16 16 16 15 15
23 23 23 24 24 24 25 24 24 25 24 23 23 24 24 24 24 24 24 23 23 22 22 23 22 22 22 21 20 20 20 20 20 20 20 19 18 18 18 18 18 18 17
25 25 26 26 26 26 26 27 26 26 26 25 24 25 26 26 26 26 25 24 24 23 23 23 22 21 21 21 21 21 21 20 20 19 20 20 20 20 20 20 20 20 19
27 27 27 27 27 27 27 27 28 28 27 26 25 25 26 26 27 27 26 26 26 26 24 23 23 22 21 22 22 21 21 21 20 20 20 21 21 22 22 22 22 21 21
27 28 28 28 27 28 29 29 29 29 30 29 27 25 27 27 28 27 28 28 28 27 26 24 24 23 23 23 23 22 22 22 22 22 22 22 23 23 23 23 24 23 23
27 28 28 28 28 28 28 28 29 29 30 30 29 27 27 28 28 29 29 29 28 28 27 26 25 25 25 25 24 23 23 24 25 25 24 25 24 24 25 25 26 26 26
27 28 28 28 28 28 27 28 28 28 29 30 30 29 28 28 27 28 28 28 28 28 28 27 26 27 26 26 27 26 26 26 26 26 26 27 27 27 27 27 28 28 28
27 27 27 27 27 27 27 27 27 27 26 28 29 29 29 28 27 27 27 27 27 28 30 30 28 28 28 27 27 28 28 27 27 28 28 29 29 29 30 29 30 30 30
26 27 26 25 25 26 27 26 26 27 26 26 27 28 28 27 26 26 27 27 28 29 30 30 29 30 30 29 29 29 29 29 29 30 29 29 30 31 31 31 32 32 32
26 27 26 25 25 26 26 27 27 26 25 25 26 27 28 28 27 26 26 27 29 29 30 30 31 31 31 31 30 30 30 30 30 30 31 31 31 31 32 32 33 33 33
26 26 26 25 26 26 26 27 26 25 25 25 25 26 25 25 26 26 26 26 28 30 30 30 29 29 29 29 29 29 30 31 31 31 31 31 32 32 33 33 33 34 35
26 26 25 25 26 26 26 26 25 25 25 25 25 24 24 24 25 25 26 26 28 29 29 30 29 30 30 30 30 31 31 30 31 32 32 33 33 33 34 34 34 34 34

GEFSSE_500_meanwind_126.txt.gz
Wind_Speed
4 4 4 5 5 5 5 6 6 6 6 6 5 5 4 3 2 1 1 2 3 3 4 4 5 5 5 5 4 4 3 3 3 2 2 2 3 3 4 3 3 3 3
5 5 5 5 5 6 6 7 7 7 7 7 6 6 5 4 3 2 1 1 2 2 3 3 4 4 4 4 4 3 2 2 2 2 2 2 2 3 3 3 3 3 3
6 6 5 5 5 6 7 8 8 9 8 8 7 7 6 5 4 3 3 3 2 3 3 3 3 4 3 3 3 2 2 2 1 1 1 1 1 2 2 2 2 2 2
6 6 6 6 6 7 8 9 9 10 9 9 8 8 7 7 6 5 5 4 4 4 4 4 4 4 3 3 3 2 2 1 1 1 1 0 0 1 1 1 1 1 1
6 7 7 7 7 8 9 10 11 11 10 10 10 9 9 8 8 7 7 6 6 6 5 5 5 5 4 4 3 2 2 2 2 2 2 1 1 1 1 1 1 0 0
7 8 8 8 8 9 10 10 11 12 12 11 11 10 10 9 9 9 9 8 8 7 7 6 6 6 5 5 4 4 3 3 3 3 3 2 2 2 2 2 2 2 1
8 8 9 9 10 10 11 12 12 13 14 13 12 12 11 11 11 11 11 11 11 10 9 8 8 7 7 6 6 5 5 5 5 5 4 4 4 4 3 3 3 3 2
9 8 10 10 11 12 13 14 14 14 15 15 14 14 13 13 13 13 13 13 13 12 11 11 10 9 9 8 8 7 7 7 7 6 6 6 6 6 5 4 4 4 3
11 10 11 11 13 14 14 14 15 15 16 16 15 15 15 15 15 15 15 15 15 14 13 13 12 11 11 10 10 9 9 9 9 9 8 8 8 7 7 6 6 5 5
13 13 13 14 14 15 15 15 16 16 16 17 17 17 17 17 16 17 16 16 16 16 15 15 14 13 12 12 12 11 11 11 11 11 10 10 10 9 9 8 8 7 6
15 15 15 15 15 15 15 16 17 18 18 18 18 18 18 18 18 19 19 19 18 18 17 17 16 15 15 14 14 13 13 13 13 13 13 12 11 11 10 10 10 9 8
16 16 16 16 17 17 17 17 18 19 19 19 19 19 19 19 19 20 20 20 20 20 19 18 18 17 16 16 16 15 15 15 15 15 15 14 13 13 12 12 12 11 11
18 17 17 17 17 18 19 18 19 20 20 20 20 20 20 20 20 20 21 21 20 20 20 19 19 18 17 18 18 17 16 16 16 17 17 16 16 15 15 14 14 13 13
19 18 18 18 19 19 19 19 20 20 21 22 22 22 22 22 21 21 20 20 21 21 21 20 20 20 19 19 19 18 17 18 18 18 17 18 18 17 16 16 16 16 15
21 20 19 20 20 20 19 20 21 21 22 22 23 23 23 23 23 23 23 23 22 23 22 21 21 21 20 20 21 21 20 19 20 20 19 19 19 18 18 18 18 18 17
22 21 21 22 22 22 22 22 22 22 23 24 24 25 25 24 24 25 24 25 25 25 25 24 23 22 22 21 22 22 21 21 21 21 21 21 20 20 19 19 19 19 19
23 23 23 23 23 23 23 23 23 24 24 25 26 27 26 26 26 26 25 24 25 26 26 25 24 24 23 23 23 24 23 23 22 23 23 22 22 21 21 21 21 21 21
24 24 24 24 24 24 24 24 25 26 25 26 27 28 28 27 28 27 26 24 25 26 27 27 26 25 24 25 24 24 24 24 24 24 24 23 23 23 22 22 22 22 22
24 24 24 25 24 24 24 24 25 26 26 27 27 27 27 27 28 28 27 26 26 26 27 28 28 26 26 26 26 26 25 26 25 25 25 25 24 24 24 23 24 24 24
23 24 25 25 25 25 24 25 25 26 27 27 27 27 27 28 29 28 28 28 28 28 27 28 29 28 28 28 27 27 27 26 27 26 26 26 26 26 26 26 26 26 26
23 24 24 24 25 25 25 24 25 26 27 27 27 28 28 28 29 29 29 29 29 29 29 29 29 29 29 29 29 28 28 28 28 28 27 27 28 29 29 30 30 30 29
25 25 25 24 25 25 25 25 24 25 27 28 28 29 30 30 30 30 31 30 29 30 30 29 30 31 31 31 31 31 30 30 31 30 30 31 31 31 31 32 33 33 32
26 26 26 25 26 25 25 26 26 25 26 27 28 29 29 30 30 30 31 31 30 30 29 30 30 31 31 32 32 32 31 31 32 32 32 33 33 33 33 33 34 34 34
27 27 27 27 27 27 26 26 26 27 26 26 27 28 28 28 29 29 30 31 31 30 29 29 29 30 31 31 33 34 34 33 34 34 34 34 35 35 35 34 34 35 35
26 27 27 27 28 28 28 27 27 27 27 27 27 27 27 27 28 28 29 29 30 30 30 30 30 31 31 32 34 35 35 35 35 35 36 36 36 36 36 35 36 36 36
25 26 26 27 28 29 29 28 28 28 28 28 28 28 28 28 28 28 28 29 30 30 31 32 32 32 33 34 34 35 36 36 36 36 37 37 36 36 37 37 37 36 37

GEFSSE_500_meanwind_132.txt.gz
Wind_Speed
7 7 6 6 6 6 6 6 5 5 5 6 6 7 7 7 6 5 4 3 3 2 2 2 2 2 2 2 2 2 2 2 2 2 3 3 3 3 4 3 4 4 4
8 8 8 7 7 7 7 7 7 7 7 7 8 8 8 8 8 7 6 5 4 4 3 3 3 3 2 1 1 1 0 1 1 1 2 2 2 2 3 3 3 3 3
10 9 9 9 8 8 8 8 8 8 8 9 9 9 9 9 9 9 8 7 6 5 5 4 4 4 3 2 2 1 1 1 1 1 1 1 1 1 2 2 2 2 2
11 11 10 10 10 9 9 9 9 9 9 10 10 10 10 11 11 10 10 9 8 7 7 6 6 5 4 4 3 3 3 2 2 2 2 1 1 1 1 1 1 1 1
12 12 12 11 11 11 11 11 11 11 11 11 12 12 12 12 12 12 11 11 10 9 8 8 7 7 6 5 5 5 4 4 4 3 3 3 3 3 2 1 1 1 0
13 13 13 13 13 12 12 12 12 12 12 13 13 13 14 14 14 14 13 12 12 11 10 10 9 8 8 7 7 6 6 6 5 5 5 4 4 4 3 2 2 2 2
13 14 14 13 14 13 13 13 13 14 14 14 14 15 15 15 15 15 15 14 13 13 12 11 10 10 9 9 8 8 8 7 7 6 6 6 5 5 4 3 3 3 3
13 14 14 14 14 14 15 15 15 15 16 16 16 16 17 17 17 17 16 16 15 14 14 13 12 11 11 11 10 10 9 9 9 8 8 8 7 7 6 5 5 4 4
14 14 14 14 15 15 15 16 16 16 17 18 18 18 19 19 19 18 18 17 17 16 16 15 14 13 13 13 12 12 12 11 11 11 10 10 10 9 8 8 7 6 6
16 15 14 14 14 15 15 16 16 17 17 18 19 19 19 20 19 19 19 18 18 18 18 17 16 15 15 15 15 14 14 13 13 13 11 11 11 11 10 10 9 9 8
17 16 15 15 15 15 16 17 18 18 18 19 20 20 20 20 20 20 20 20 20 20 20 19 18 17 17 17 17 16 16 16 15 14 13 13 13 12 12 12 12 11 10
17 17 16 16 16 16 16 18 17 18 19 20 21 22 22 22 21 21 22 22 21 21 21 21 20 20 19 19 18 19 18 18 16 15 15 15 14 14 14 14 13 13 13
18 17 16 17 16 15 17 17 17 18 19 20 21 21 21 22 22 21 22 22 22 21 21 21 22 21 21 21 20 20 20 20 18 17 17 16 17 17 16 15 15 15 15
17 16 15 16 17 17 16 18 19 20 20 21 22 23 22 22 23 23 23 24 24 23 22 22 22 21 21 22 21 21 21 21 19 18 18 18 18 18 17 17 17 17 17
18 18 17 18 18 19 19 20 20 21 21 21 22 23 23 23 25 25 25 25 25 24 23 22 21 21 21 22 22 21 21 21 20 19 20 20 20 19 19 19 19 18 18
19 19 19 19 20 21 21 21 21 22 22 22 23 24 24 25 25 25 25 25 26 26 25 24 23 22 22 23 23 23 23 22 21 20 20 20 20 21 20 21 21 20 20
20 20 19 20 21 21 21 21 22 23 24 23 24 25 26 27 27 27 26 26 26 26 26 25 25 24 24 23 23 23 23 23 23 22 22 22 22 22 22 22 22 22 21
20 21 22 22 21 22 22 22 23 24 24 25 25 26 27 28 29 29 28 28 27 27 27 27 27 26 25 25 25 24 24 25 24 23 24 23 23 24 24 23 23 23 23
20 22 23 23 23 23 24 24 24 25 25 25 25 26 27 28 29 30 30 29 29 28 28 28 28 27 26 26 26 27 26 26 25 25 25 24 24 25 25 24 25 25 25
23 23 24 24 25 25 26 26 26 25 26 26 26 26 27 28 29 30 31 31 31 30 30 29 28 28 28 27 27 28 28 27 27 26 26 25 25 25 26 27 26 27 27
24 24 25 25 26 27 27 27 27 27 27 27 27 28 28 28 29 30 30 31 32 31 30 30 30 30 29 29 28 27 27 28 28 28 27 27 28 28 28 28 28 28 28
24 24 26 26 26 27 28 28 28 28 28 28 28 28 29 29 30 30 30 30 31 31 31 31 31 31 30 31 29 29 28 28 28 30 30 30 30 30 30 30 30 30 29
24 25 26 27 28 28 29 29 29 30 29 29 29 29 30 29 29 30 31 30 30 31 32 32 33 32 31 31 31 30 30 29 30 31 31 32 32 32 32 32 32 33 33
24 24 25 26 28 29 29 30 30 31 31 31 31 31 31 30 29 30 30 31 30 30 31 32 33 33 32 31 31 31 32 31 30 31 32 32 33 34 34 34 34 35 35
24 25 26 27 28 29 30 30 31 31 32 32 32 32 31 29 29 29 29 30 31 31 31 31 32 33 33 33 32 32 32 32 32 33 33 33 34 34 35 35 35 36 36
24 25 26 27 28 29 29 29 30 31 32 32 32 32 31 30 29 29 29 29 30 30 31 31 32 33 34 34 34 34 34 34 34 34 34 34 34 34 35 36 36 36 36

GEFSSE_500_meanwind_138.txt.gz
Wind_Speed
3 3 2 2 3 3 3 4 5 5 5 6 6 7 7 7 7 7 7 7 7 7 6 6 6 6 6 5 4 3 2 2 2 1 1 1 2 2 2 3 3 3 4
6 6 5 4 4 5 5 5 6 6 6 7 7 8 8 8 9 9 9 8 8 8 8 7 7 7 6 5 5 4 3 3 3 3 2 2 2 2 2 2 2 3 3
8 7 7 6 6 6 6 6 7 7 8 8 8 8 9 9 9 9 9 9 9 9 9 8 8 8 7 6 5 5 4 4 4 3 3 2 2 2 1 1 1 2 2
9 8 8 8 7 7 7 7 8 8 9 9 9 9 10 10 10 10 10 10 10 10 10 10 9 9 8 8 6 6 6 5 4 4 4 3 3 2 1 1 1 1 1
11 10 10 9 9 8 8 8 9 9 9 10 10 10 11 11 12 11 11 11 12 11 11 10 10 10 10 9 8 7 7 6 6 5 5 5 4 4 3 2 2 2 1
12 11 11 11 10 10 10 10 10 10 11 11 11 12 12 12 13 13 13 13 13 13 12 12 11 11 11 10 9 8 7 7 7 7 6 6 6 5 5 4 4 3 3
12 12 12 12 11 11 11 12 12 12 12 12 13 13 13 13 14 14 14 14 14 14 14 14 13 13 12 12 11 9 8 8 9 8 8 8 7 7 7 6 5 5 4
12 12 12 12 13 13 13 13 13 14 14 14 14 14 14 15 15 15 15 16 16 16 16 16 15 15 14 13 12 11 10 10 10 10 10 9 9 9 9 8 7 6 6
13 12 12 13 14 14 14 15 15 15 15 15 15 16 16 16 17 17 17 17 17 17 17 17 17 16 16 15 14 13 12 11 12 12 12 11 11 11 10 10 9 8 8
14 12 13 13 14 15 15 16 16 16 17 17 17 16 17 17 18 18 19 18 18 19 19 19 18 18 17 17 16 15 14 13 14 14 14 13 12 13 12 11 10 10 10
13 12 13 15 15 16 16 17 17 17 18 18 18 17 17 17 18 19 19 20 20 20 20 20 20 19 19 18 18 17 16 16 15 16 16 15 15 14 14 14 13 12 12
14 12 13 14 15 17 17 17 18 18 18 18 18 18 18 19 19 20 21 21 21 20 20 21 20 19 19 20 20 19 18 18 17 17 17 17 16 16 15 15 15 14 14
14 14 13 13 15 16 17 17 18 18 18 18 18 19 19 19 20 20 20 21 22 21 21 21 21 21 21 21 21 21 20 19 19 19 18 19 19 18 18 17 16 16 15
15 14 14 13 14 16 16 16 18 19 18 19 19 20 21 21 21 21 21 22 22 22 23 23 21 21 21 21 22 22 21 21 21 20 20 20 20 20 20 19 18 17 17
15 15 15 14 15 16 17 17 18 18 20 20 21 20 22 22 23 22 22 22 23 23 23 23 23 23 23 23 22 23 22 21 21 21 20 20 21 21 20 19 19 19 19
15 16 16 16 15 16 17 17 17 18 19 20 20 22 22 22 23 23 23 23 24 24 23 23 23 24 24 23 23 23 23 23 23 22 21 21 22 22 21 20 20 20 20
16 16 16 15 16 17 17 18 18 19 20 21 21 22 23 23 23 24 25 25 24 24 24 25 25 25 25 24 24 24 24 24 24 24 23 23 22 22 22 21 21 21 21
16 16 16 17 16 17 18 18 19 21 21 22 23 23 24 24 24 24 24 25 25 25 26 26 25 25 26 26 25 25 24 25 25 25 25 25 24 24 24 24 24 23 23
16 16 17 18 17 17 19 19 20 22 23 23 23 24 25 24 24 24 25 25 25 25 26 27 26 25 26 27 27 26 26 25 26 27 26 26 26 26 26 25 24 24 24
16 16 17 18 18 19 20 21 22 23 24 25 25 26 27 26 26 26 26 27 27 26 26 27 27 28 28 28 28 28 29 28 27 28 28 27 28 27 26 25 25 25 26
17 17 18 18 19 20 21 22 22 23 25 26 26 27 27 27 28 28 28 29 28 28 28 28 28 28 29 28 29 28 28 28 27 28 28 28 27 28 28 27 26 26 26
17 18 19 19 20 21 22 22 23 24 25 26 27 27 28 29 29 28 29 29 29 29 29 30 29 29 29 29 29 29 28 28 28 28 28 28 28 29 28 28 27 28 28
18 19 20 20 21 22 22 23 24 25 25 26 27 27 28 29 29 29 29 29 29 29 29 30 30 30 30 30 30 30 30 28 28 28 28 28 28 29 29 29 29 29 29
18 19 20 21 22 22 23 23 24 25 26 26 27 27 27 28 29 29 29 29 29 29 29 29 29 30 30 30 30 30 31 30 29 28 28 28 28 29 30 31 30 29 30
18 19 20 21 22 23 24 24 25 26 26 26 27 27 27 28 28 29 29 28 28 29 29 28 29 29 29 29 30 30 31 31 31 31 31 30 29 29 30 31 31 32 32
20 20 21 22 23 24 25 25 26 27 27 28 28 27 27 27 27 27 27 27 28 28 28 28 28 29 29 29 29 30 31 31 31 32 32 31 31 30 30 30 31 32 33

GEFSSE_500_meanwind_144.txt.gz
Wind_Speed
3 3 3 4 4 3 2 1 1 1 1 1 2 3 4 5 6 7 7 7 8 8 9 9 9 9 9 9 8 8 7 6 6 5 4 3 2 2 1 1 1 1 1
4 5 5 6 5 4 3 3 2 2 2 2 3 4 4 5 5 6 7 7 8 8 9 9 9 9 9 9 9 8 8 7 6 6 4 3 3 2 2 1 1 0 1
7 7 8 7 7 6 5 4 4 4 4 4 4 5 5 6 6 6 7 7 8 9 9 10 10 9 9 9 9 8 8 7 7 6 5 4 3 3 2 2 1 1 1
9 9 10 9 8 7 6 6 6 6 6 6 6 6 6 6 7 7 8 8 8 9 9 10 10 10 10 9 9 9 8 8 7 6 6 5 5 4 3 3 2 2 1
11 11 11 11 9 9 8 8 8 8 8 8 8 8 8 8 8 9 9 9 9 10 10 10 10 10 10 10 10 10 9 9 8 7 7 6 6 5 5 4 4 3 2
12 13 12 12 11 10 10 9 9 9 9 9 10 10 10 10 10 10 11 11 11 11 11 11 11 11 11 11 11 10 10 9 9 8 7 7 6 6 6 6 5 4 4
12 13 12 12 12 11 11 11 11 11 11 11 11 11 11 12 12 12 13 13 13 13 13 12 12 12 12 12 12 11 11 10 10 9 9 8 7 7 7 7 6 6 5
13 13 13 13 13 12 12 13 13 13 13 13 13 13 13 13 14 14 15 15 15 15 15 15 14 14 14 14 13 13 12 12 11 11 10 9 9 9 9 8 7 7 7
14 14 13 14 13 13 14 14 14 14 15 15 15 15 15 15 16 16 16 17 17 17 17 17 17 16 16 16 15 14 14 13 13 13 12 11 11 11 10 10 9 8 8
14 13 13 14 14 14 15 15 15 16 16 17 17 17 17 17 17 17 17 18 18 18 18 18 18 18 18 17 17 16 15 15 15 14 14 13 12 12 12 12 11 10 10
16 15 15 15 15 16 16 17 17 17 17 18 19 19 19 19 18 18 19 19 19 19 19 20 19 19 19 18 18 18 17 16 16 16 16 15 14 14 14 14 13 13 12
16 16 16 15 16 16 15 16 17 17 17 18 18 19 19 20 20 20 20 20 20 20 21 21 21 21 20 19 19 19 19 19 18 18 18 17 17 16 16 15 15 15 15
15 15 15 14 15 17 17 17 17 17 18 19 19 20 20 21 21 21 21 21 22 22 22 22 22 22 22 21 20 20 20 20 20 20 20 19 18 18 18 17 17 17 16
15 14 15 15 16 17 18 18 18 18 18 19 19 21 21 22 22 22 22 22 23 23 23 23 23 23 23 23 22 22 21 21 21 21 21 21 20 20 19 19 19 19 18
17 16 15 15 17 18 18 18 18 19 20 20 20 21 22 23 23 23 23 24 24 24 24 25 25 24 24 23 23 23 23 23 23 23 23 22 21 21 20 20 20 20 21
16 15 15 16 16 18 19 19 19 20 20 21 21 22 23 24 24 24 25 25 25 25 25 26 26 25 25 25 24 24 24 24 23 23 23 23 23 23 22 21 22 21 22
17 15 16 16 18 19 20 20 20 20 21 21 22 23 23 24 24 25 25 25 25 25 25 25 26 26 26 26 27 26 25 25 24 24 24 24 23 23 23 23 23 23 22
15 16 16 16 17 18 19 19 20 20 21 21 22 23 24 24 25 25 26 26 25 26 26 26 26 26 26 27 29 29 28 27 26 25 25 25 25 24 25 24 24 24 24
15 16 16 16 17 18 18 19 20 20 21 21 22 24 25 26 26 27 27 27 27 26 26 27 27 27 27 28 29 29 29 29 28 27 27 27 26 26 27 26 26 26 25
16 16 15 16 17 18 18 19 20 20 21 22 23 24 25 26 26 27 28 28 28 28 28 28 27 27 28 28 28 29 29 29 29 28 29 29 28 28 29 28 27 27 26
17 17 17 18 18 18 19 20 20 20 21 21 22 24 25 26 27 28 28 29 28 29 29 29 28 28 29 29 29 29 29 30 30 30 30 29 29 29 30 29 28 28 27
17 17 18 18 18 19 20 21 21 20 20 21 22 23 24 24 26 27 27 27 28 28 29 29 29 29 29 30 29 29 29 30 30 31 31 30 30 29 29 29 29 29 29
17 17 17 18 18 19 20 20 21 21 21 22 23 23 24 25 26 27 27 28 28 29 29 29 29 29 30 30 30 30 30 29 30 31 31 31 30 30 30 30 31 31 30
20 19 19 19 19 20 20 21 22 22 23 23 24 24 25 26 26 26 27 28 28 29 29 30 29 29 29 29 30 31 31 30 30 31 31 32 31 30 30 30 31 31 31
20 21 21 21 21 21 22 22 23 24 24 24 25 26 26 26 27 27 28 28 28 28 28 28 29 28 29 29 30 30 30 30 31 30 31 31 31 31 31 31 30 30 31
20 21 22 22 22 22 23 23 24 25 25 25 26 26 27 27 27 28 28 28 28 28 28 28 28 28 28 28 29 29 30 30 30 30 30 30 31 31 31 32 31 31 30

GEFSSE_500_meanwind_150.txt.gz
Wind_Speed
2 3 2 2 2 2 2 3 3 3 2 2 1 1 1 1 1 2 3 3 3 3 4 4 5 5 5 5 5 5 5 4 4 4 3 2 2 2 1 1 1 0 1
2 2 2 2 2 3 4 4 4 4 3 3 2 2 2 1 1 1 2 2 2 3 3 3 4 4 4 4 5 5 5 4 4 3 3 2 2 1 1 1 1 1 1
3 3 3 3 4 4 5 6 6 5 4 4 4 3 3 3 3 3 3 3 3 3 3 4 4 5 4 4 4 5 4 4 4 3 3 3 2 2 2 2 1 1 1
5 5 5 5 6 7 7 8 8 7 6 6 5 5 5 5 4 4 4 4 5 5 4 5 5 5 5 5 5 5 5 5 4 4 3 3 3 3 3 3 3 3 3
7 7 7 8 8 8 8 9 9 8 8 7 7 7 7 7 6 6 7 6 6 6 6 6 7 7 7 6 6 6 6 6 5 5 5 4 4 4 4 4 4 4 4
7 7 8 9 9 9 9 10 10 9 9 9 8 8 8 8 9 9 9 9 8 8 8 8 8 8 8 8 7 7 7 7 7 6 6 6 6 6 6 6 5 6 6
9 9 10 11 11 11 11 11 11 11 11 10 10 10 10 10 10 10 10 10 10 10 10 10 10 10 10 9 9 9 9 9 9 8 8 8 8 7 7 7 7 7 7
10 10 11 11 11 12 12 12 12 12 12 12 12 12 12 12 12 12 12 12 12 12 11 11 12 12 12 11 11 11 11 11 11 10 10 9 9 9 9 9 8 8 8
11 10 11 11 12 13 13 13 13 13 13 13 14 14 14 14 14 14 14 14 14 14 14 13 13 14 14 13 13 13 13 13 13 12 12 12 11 11 11 10 10 10 10
12 12 12 12 13 14 14 15 15 15 15 15 16 16 16 16 16 16 16 16 16 16 15 15 15 15 15 15 15 15 15 15 14 14 13 13 13 13 13 12 12 11 11
14 14 14 14 14 14 15 15 16 16 16 16 17 17 17 18 18 17 17 18 17 17 17 17 17 16 16 16 16 16 16 16 16 16 15 15 15 15 15 15 14 13 13
15 15 15 15 15 16 16 17 17 17 17 17 17 18 18 18 19 19 19 19 18 18 18 18 18 18 18 18 17 18 18 19 18 18 18 17 17 17 17 17 17 16 15
15 16 17 17 17 17 17 18 18 19 19 19 19 19 19 20 20 20 20 20 20 20 19 20 20 19 19 19 19 19 19 20 20 20 20 19 19 19 19 19 19 18 17
16 16 17 18 19 19 18 19 19 19 19 20 20 21 21 22 22 22 21 21 21 21 21 21 21 21 21 21 21 21 21 21 21 22 22 21 21 20 20 20 20 20 19
16 16 16 18 19 19 19 20 21 21 21 21 22 22 23 23 23 24 23 23 23 23 22 23 23 23 23 22 22 23 23 23 22 22 23 22 23 23 23 22 21 21 21
17 17 18 18 19 19 20 21 21 21 22 23 24 24 25 25 25 25 25 25 25 24 24 24 24 25 24 24 24 24 24 24 24 24 24 24 24 23 23 23 23 22 22
18 18 18 19 19 19 19 21 21 21 23 23 24 25 26 26 27 27 26 26 26 26 26 25 25 25 25 26 25 25 25 25 25 25 25 25 24 24 24 24 24 23 23
18 19 19 20 20 20 21 21 21 21 22 23 24 24 25 26 27 27 27 27 27 27 27 27 26 26 26 26 27 27 26 26 26 27 27 27 26 26 27 26 26 26 25
18 18 18 18 19 20 21 22 22 21 21 22 23 24 25 26 27 27 27 27 28 28 27 28 28 27 27 27 27 27 27 26 27 27 28 28 28 28 28 28 28 27 27
18 18 17 19 20 21 21 22 22 22 23 23 24 25 26 26 27 27 28 27 28 28 28 29 28 28 28 28 28 28 28 28 28 27 28 29 29 29 29 28 29 29 28
17 17 18 19 20 21 21 21 21 22 23 24 25 25 26 26 27 28 28 28 27 28 29 29 28 28 29 29 29 29 29 29 29 29 29 30 30 30 31 30 30 30 30
18 18 19 20 20 21 21 22 23 24 25 25 26 27 27 27 28 28 28 28 29 29 29 29 29 30 30 30 29 29 29 30 30 30 30 30 30 31 31 32 31 31 32
19 20 20 20 20 21 23 24 24 24 25 26 26 27 27 27 27 28 28 29 29 28 28 29 29 30 30 30 30 30 29 29 29 30 30 30 31 31 32 32 33 32 32
20 21 21 21 21 22 23 23 24 24 25 26 26 27 28 28 28 28 28 27 27 28 28 28 29 30 31 30 30 31 31 30 30 30 30 31 31 31 32 32 33 33 33
20 21 21 21 22 23 23 24 25 25 25 26 26 27 28 28 28 28 28 28 28 29 29 29 29 30 30 31 31 31 32 31 30 30 30 31 31 31 31 32 32 32 33
20 20 21 22 22 23 24 25 25 26 27 27 28 29 29 29 29 29 29 29 30 30 30 30 30 30 30 31 31 32 31 31 31 30 30 30 31 31 31 30 31 32 32

GEFSSE_500_meanwind_156.txt.gz
Wind_Speed
3 3 3 3 3 4 4 4 4 5 4 5 5 5 4 4 4 4 3 3 3 2 2 2 2 2 2 3 3 3 3 2 2 2 2 2 1 1 1 1 1 1 1
5 5 5 5 5 5 5 6 6 6 6 6 6 6 6 5 5 5 5 4 4 4 3 3 3 3 3 3 3 3 3 3 2 2 2 2 1 1 1 1 1 1 1
8 7 6 6 6 7 7 7 8 8 8 8 7 7 7 6 6 6 6 5 5 5 5 5 5 5 4 4 4 4 4 4 3 3 3 3 3 2 2 2 2 2 2
9 9 9 8 9 9 9 9 9 9 9 9 9 9 8 8 7 7 7 6 6 6 6 6 6 6 6 6 6 5 5 5 5 4 4 4 4 4 3 3 3 3 3
10 10 10 11 11 12 11 11 11 11 11 11 11 10 10 9 9 9 8 8 8 8 8 8 8 8 7 7 7 7 7 7 6 6 5 6 5 5 5 4 5 5 4
11 11 11 12 13 13 14 13 13 13 13 13 12 12 12 11 11 10 10 10 10 10 10 9 9 9 9 9 9 9 9 9 8 7 7 7 7 6 6 6 6 6 6
12 12 12 13 13 14 15 15 15 15 15 15 14 14 14 13 12 12 12 12 12 12 11 11 11 11 11 11 11 11 11 11 10 9 9 9 8 7 8 8 8 8 8
13 13 13 14 15 15 16 16 17 17 17 16 16 15 15 14 14 14 13 13 13 13 12 13 13 13 13 13 13 13 13 12 12 11 11 10 10 9 9 10 10 10 10
14 15 15 15 16 17 18 19 18 18 18 18 18 17 17 16 15 15 15 15 15 14 14 14 14 15 15 15 15 14 14 14 14 13 12 12 12 11 11 11 11 11 11
16 16 16 16 17 18 19 20 20 20 20 19 19 19 19 18 17 16 16 16 16 16 16 15 16 16 16 16 16 16 16 15 15 15 14 13 14 13 13 14 13 13 14
17 17 16 17 18 18 19 20 21 21 21 20 20 19 19 19 19 18 18 18 17 17 17 17 17 17 17 17 17 17 17 17 17 16 15 15 15 16 15 15 15 15 15
18 18 17 19 18 19 18 19 20 20 20 20 19 19 19 20 20 19 19 19 19 19 18 18 18 18 18 18 18 18 19 19 19 18 17 16 17 18 17 17 16 17 17
19 19 19 20 19 19 19 20 20 21 21 19 19 20 20 21 20 20 20 20 20 20 20 20 19 19 19 19 19 19 20 20 20 19 19 18 19 19 19 19 19 18 18
19 19 19 20 20 20 21 22 22 22 22 22 21 22 22 22 21 20 20 21 21 21 21 20 20 20 20 21 20 20 21 22 22 20 21 20 20 21 20 21 20 20 19
19 19 19 19 21 20 21 21 22 22 23 22 22 22 23 22 22 22 21 22 22 22 22 22 22 22 22 22 21 21 22 22 23 22 22 22 22 22 22 21 21 21 21
19 19 19 19 20 21 22 23 22 22 23 23 23 23 23 23 23 23 22 23 24 24 23 24 24 24 24 24 23 23 22 23 23 23 23 23 22 23 23 23 23 23 23
20 19 19 19 20 21 23 23 23 23 23 23 23 24 24 24 24 24 24 24 25 25 25 25 25 25 25 25 24 24 23 23 23 23 23 23 22 22 23 23 23 24 24
20 20 20 20 21 22 24 24 24 24 24 25 26 26 26 26 25 25 25 25 25 26 26 26 26 26 26 25 25 25 24 25 25 24 24 24 24 24 24 24 25 25 25
20 20 20 21 21 23 24 25 26 25 25 27 26 26 27 26 25 26 26 26 27 27 28 28 27 26 26 26 26 26 26 26 27 26 26 26 25 25 26 26 26 26 26
20 20 20 21 21 23 24 25 26 26 26 27 27 27 27 27 27 27 27 27 28 29 29 28 28 28 27 27 26 26 26 27 26 26 27 26 27 26 26 27 27 27 27
19 19 20 21 21 23 23 25 26 26 27 28 28 28 28 27 28 28 28 29 29 29 30 29 29 29 28 27 27 27 27 27 27 27 27 26 26 27 27 28 28 28 28
21 21 21 22 22 23 24 24 25 26 26 25 26 27 28 28 28 29 29 29 30 30 30 30 30 30 29 28 27 27 27 27 28 28 27 27 27 27 27 28 28 28 29
21 22 22 23 23 24 24 25 25 25 25 25 25 25 27 29 29 30 29 29 30 30 30 31 30 30 29 29 28 28 28 28 28 28 29 28 28 28 28 28 29 29 29
20 21 22 23 24 25 26 25 25 25 25 25 26 27 28 29 29 30 29 29 30 30 30 30 29 29 29 29 29 29 29 29 29 28 29 30 29 29 29 29 29 29 28
21 22 23 24 24 24 24 25 25 25 26 27 28 29 29 29 30 30 31 30 30 30 30 31 30 30 30 30 30 29 29 30 30 30 29 29 30 29 29 29 29 29 29
23 23 23 23 23 23 24 25 26 26 27 28 28 29 29 30 30 31 31 31 31 31 31 31 30 31 31 30 30 30 29 29 29 29 29 29 29 29 29 28 28 29 28

GEFSSE_500_meanwind_162.txt.gz
Wind_Speed
2 1 1 1 2 2 3 4 4 5 6 7 8 8 8 8 8 8 8 8 7 7 6 6 6 5 5 5 5 5 4 4 3 3 3 2 3 2 2 2 1 1 0
3 3 2 3 3 4 4 5 6 6 7 8 9 10 10 10 10 10 10 9 8 8 8 7 6 7 7 6 6 6 6 5 5 4 4 3 3 3 3 2 2 1 1
4 4 4 4 5 5 6 7 8 8 9 10 10 11 11 11 11 11 11 10 10 10 9 8 8 8 8 8 7 7 7 7 6 5 5 4 4 4 4 3 3 3 2
6 6 6 6 6 7 8 8 9 10 10 11 12 12 12 12 12 12 12 11 11 11 11 10 10 9 9 9 9 9 8 8 7 7 6 6 5 5 5 5 4 4 4
7 7 8 8 8 9 9 10 11 11 12 12 13 13 13 13 13 13 13 13 12 12 12 12 12 11 11 10 10 10 10 9 9 8 7 7 7 6 7 6 6 5 5
9 9 9 9 10 10 11 11 12 13 14 14 14 14 15 15 15 15 15 14 14 14 14 13 13 13 12 12 11 11 11 11 10 9 9 9 9 8 8 8 7 7 7
10 10 10 11 11 12 13 13 14 15 15 16 16 16 16 16 16 16 16 16 16 16 15 15 14 14 14 13 13 13 12 12 12 11 10 11 11 10 10 10 9 8 8
11 11 12 13 13 14 15 15 16 16 17 17 18 18 18 18 18 17 17 17 17 17 17 16 16 16 15 15 14 14 14 14 13 12 12 12 12 12 12 11 11 10 10
11 12 13 14 15 15 16 16 17 18 18 19 19 19 20 20 19 20 19 18 18 18 17 18 18 17 16 16 16 16 16 15 15 14 13 14 14 14 13 13 13 12 11
12 13 14 14 15 16 15 16 17 18 18 19 19 19 20 20 21 21 20 20 19 19 19 19 19 18 18 17 16 16 17 17 16 16 15 15 15 15 15 15 14 14 13
13 15 15 15 16 17 16 16 17 18 18 18 19 20 20 21 21 21 21 20 20 19 19 19 19 19 19 19 18 19 18 18 18 18 18 17 17 16 16 17 16 16 16
14 15 15 15 16 16 17 17 18 18 18 18 18 19 20 20 21 21 21 20 20 20 20 20 20 20 20 20 20 21 21 20 20 19 19 19 19 19 18 17 17 17 17
14 15 15 16 17 17 18 18 17 18 18 19 19 20 20 21 22 22 22 22 22 22 21 21 21 21 21 21 21 21 21 21 21 21 21 21 20 21 20 19 19 19 19
14 15 16 17 17 17 18 19 18 19 19 20 21 21 22 22 23 24 24 23 23 22 22 21 21 21 21 22 22 21 22 22 22 22 23 23 23 22 22 21 21 21 21
15 16 17 17 18 18 18 18 19 19 20 20 20 21 21 22 23 23 23 23 23 22 22 22 21 22 22 22 23 23 23 23 24 23 23 23 23 23 23 23 23 23 23
16 17 18 18 18 18 19 20 20 21 21 21 21 21 21 22 23 23 24 24 23 23 23 23 22 22 23 23 24 24 24 24 24 24 24 24 23 23 24 24 25 24 24
16 17 18 18 19 19 20 20 21 22 22 22 23 22 23 23 24 24 25 24 23 23 23 24 23 24 24 24 24 24 25 25 25 25 25 24 24 23 24 24 24 24 25
17 18 19 19 19 20 21 21 21 22 22 22 23 23 25 24 24 25 24 24 23 24 24 24 25 24 24 25 25 25 25 26 26 26 25 25 24 24 24 24 24 24 24
18 19 19 20 20 21 22 22 21 22 22 23 24 25 25 24 24 24 24 24 24 24 25 25 26 25 25 25 25 25 26 26 25 26 26 25 25 25 25 25 25 25 25
18 19 19 19 20 21 22 22 22 22 22 23 25 25 25 25 25 24 25 25 25 25 26 26 26 26 26 26 26 26 26 26 26 26 26 26 25 25 25 25 26 26 26
18 19 19 20 21 22 22 22 22 22 22 23 24 25 25 25 25 24 25 25 25 26 27 28 28 28 28 27 27 26 26 26 26 26 26 26 26 26 26 26 26 26 26
17 18 19 20 21 22 21 22 23 23 24 24 24 25 25 25 25 25 24 25 26 27 27 28 28 28 28 28 28 28 27 26 27 27 27 27 26 26 26 26 26 26 27
17 19 19 20 21 21 21 22 24 24 25 26 26 26 26 25 25 25 25 25 26 27 27 28 28 28 28 29 28 28 28 27 27 28 28 27 27 26 27 27 26 26 26
18 19 19 20 20 21 21 22 24 24 25 26 26 26 26 26 26 26 26 26 27 27 27 28 28 29 29 29 29 29 28 28 28 28 28 28 28 28 27 27 27 27 26
19 19 19 19 20 21 22 23 24 25 25 25 26 26 26 26 26 26 27 27 27 27 27 27 28 29 29 29 29 28 28 28 28 28 28 28 28 28 28 27 27 27 26
19 19 20 20 21 22 23 23 24 24 25 26 26 26 26 26 27 27 28 28 28 28 28 28 29 29 29 29 28 28 28 28 28 29 28 28 27 28 28 28 27 27 26

GEFSSE_500_meanwind_168.txt.gz
Wind_Speed
2 3 3 4 4 4 4 4 4 5 5 6 6 7 7 8 9 10 10 10 10 10 11 10 10 10 9 9 8 8 7 7 6 6 6 5 5 4 4 3 3 3 3
3 4 4 4 5 5 5 5 6 6 7 7 8 8 9 9 10 11 11 11 11 11 12 11 11 11 10 10 10 9 8 8 7 7 6 6 5 5 5 4 4 4 4
5 5 5 6 6 6 6 7 7 8 8 9 9 10 10 11 11 12 12 12 12 12 12 12 12 12 11 11 11 10 10 9 9 8 8 7 6 6 6 5 5 5 5
6 7 7 7 7 7 8 8 9 9 9 10 10 11 11 12 13 13 13 13 14 13 13 14 13 13 13 13 12 12 11 11 10 9 9 8 8 8 7 7 7 6 6
8 8 8 8 8 8 9 9 10 10 10 11 12 12 13 13 14 14 15 15 15 15 15 15 15 15 14 14 13 13 12 12 12 11 10 9 9 9 9 8 8 8 7
9 9 10 9 9 9 10 10 11 11 12 12 13 14 14 15 15 16 16 16 16 16 17 17 16 16 16 15 15 14 14 13 13 12 11 11 11 10 10 10 10 9 9
10 11 11 11 11 10 11 11 12 13 13 14 14 15 16 16 17 17 17 18 18 18 18 18 18 18 17 17 16 15 15 14 14 13 13 12 12 12 11 11 11 11 10
12 12 12 11 11 12 12 13 13 14 15 15 15 16 16 17 18 18 18 19 19 20 19 19 20 19 19 19 18 17 16 16 15 15 15 14 14 14 13 12 12 12 12
12 12 12 13 13 13 13 14 15 15 16 16 16 17 18 18 19 19 19 19 20 20 20 20 20 20 20 20 19 19 18 17 17 16 16 16 15 15 14 14 14 14 14
13 14 14 14 14 14 14 14 15 16 16 17 17 18 18 19 19 20 20 20 21 22 22 22 21 21 21 21 20 20 20 19 18 18 18 17 17 16 16 16 16 15 15
14 15 15 14 14 14 14 15 16 16 17 17 17 19 19 20 20 21 21 22 23 23 23 23 23 23 22 21 21 21 21 21 20 20 20 19 19 18 18 17 17 17 16
15 15 14 14 14 15 16 16 17 18 18 19 19 20 20 21 22 22 22 23 24 24 25 24 24 24 24 24 24 23 23 22 22 22 21 20 20 20 20 19 19 19 18
14 14 14 14 15 16 17 18 18 19 19 19 19 20 21 22 22 23 23 23 24 24 25 26 26 26 25 25 25 24 24 23 23 23 23 22 22 22 21 21 21 21 20
14 14 16 16 16 17 18 19 19 19 20 20 20 21 22 22 23 23 23 23 24 25 25 26 27 26 26 25 25 25 24 24 24 24 24 24 23 23 23 23 23 22 22
15 16 17 17 17 18 19 19 20 20 20 21 22 23 23 22 23 23 23 23 24 25 25 26 27 26 26 26 26 26 26 24 24 24 24 24 24 24 24 24 24 23 24
15 16 17 17 18 18 19 20 21 21 21 22 23 23 23 23 23 23 24 24 25 25 25 26 27 27 27 28 28 27 26 26 26 26 25 25 25 25 25 24 25 25 25
17 17 17 18 18 19 20 21 22 22 22 22 22 22 23 24 25 25 24 25 26 25 26 26 26 28 28 27 27 27 27 27 27 27 27 26 26 26 25 25 25 25 25
17 18 18 19 19 19 21 22 23 23 23 23 23 23 24 24 25 25 25 25 26 27 26 26 27 27 28 27 28 28 28 28 28 28 28 28 27 26 26 26 26 26 26
17 18 18 18 19 20 21 22 22 23 23 23 23 23 24 25 25 25 24 25 26 27 27 27 27 28 29 29 29 28 28 28 28 29 29 29 28 27 26 26 27 27 27
18 18 19 19 20 20 21 23 23 23 23 24 24 24 24 24 25 25 25 26 26 28 28 28 29 28 29 29 30 29 28 29 29 29 29 29 29 28 27 27 27 28 28
20 20 20 20 21 22 22 23 23 23 23 24 25 25 25 25 25 26 27 27 28 28 29 29 29 29 30 30 30 30 30 30 30 30 29 29 28 28 28 28 28 28 28
21 21 21 21 22 23 23 23 23 22 23 24 25 25 26 25 26 26 27 28 29 29 30 30 30 30 30 30 30 30 30 30 30 30 30 29 29 29 29 29 28 28 28
22 22 23 23 23 23 22 23 23 23 24 25 26 26 26 26 27 27 28 29 30 30 30 30 30 30 30 31 31 30 30 30 31 31 31 31 30 31 30 29 29 28 28
22 22 22 23 24 24 24 24 24 24 24 25 25 26 27 28 28 28 29 29 30 30 31 30 30 30 29 29 30 30 30 30 31 31 31 32 32 32 32 31 31 31 30
21 22 22 23 23 22 22 23 24 24 25 25 26 26 27 28 28 29 29 29 29 30 30 30 29 28 28 29 29 30 30 30 30 31 32 33 33 32 32 32 32 32 32
21 21 21 22 22 22 22 23 24 24 25 25 25 26 27 28 28 29 29 29 29 29 29 29 28 28 28 28 29 29 29 30 30 31 31 32 33 33 33 32 32 33 33

GEFSSE_500_meanwind_174.txt.gz
Wind_Speed
1 0 0 1 2 2 3 3 4 4 4 4 4 3 4 4 4 5 6 6 6 6 6 6 6 6 6 6 5 5 5 5 5 5 5 5 4 4 4 4 3 3 4
1 2 2 3 3 4 4 5 5 5 5 5 5 5 5 5 5 5 6 7 7 7 7 7 7 7 7 7 7 7 6 6 6 6 6 6 5 5 5 5 4 4 4
2 3 3 4 4 5 5 6 6 7 7 7 6 6 6 7 7 6 7 7 8 8 8 8 8 8 8 8 8 8 8 7 7 7 7 7 7 7 6 6 6 6 6
4 4 4 5 5 6 7 7 7 8 8 8 8 8 8 8 8 8 8 9 9 9 10 10 10 9 9 9 9 9 9 9 9 9 9 8 8 8 8 8 8 7 7
5 6 6 6 7 8 8 8 9 9 10 10 9 9 9 10 10 10 10 10 10 11 11 12 11 11 11 11 11 11 11 11 10 11 10 10 10 10 10 10 9 9 9
7 8 8 8 9 9 10 10 11 11 11 11 11 11 11 11 11 11 11 12 12 12 13 13 13 13 13 12 12 12 12 12 12 12 12 11 11 11 11 11 12 11 11
9 9 9 10 11 11 11 12 12 12 12 12 12 12 12 12 12 13 13 14 14 14 14 14 14 14 14 14 13 14 14 14 14 14 14 13 13 13 13 13 13 13 13
10 11 11 12 12 12 12 13 13 13 13 13 13 13 13 14 14 14 15 15 15 15 16 16 16 15 15 16 15 15 15 16 16 16 15 15 15 14 14 15 15 15 15
13 12 13 13 13 13 13 13 13 14 14 14 14 14 15 15 15 15 16 16 17 17 17 17 17 17 17 17 17 17 17 17 17 17 17 17 17 16 16 16 16 16 16
13 13 12 13 13 14 14 14 15 15 15 15 15 15 15 16 17 17 17 17 18 18 19 19 19 19 19 19 19 19 19 18 18 18 19 19 18 18 18 18 18 18 18
14 13 13 14 14 15 15 16 16 16 16 16 17 17 17 18 18 18 19 20 20 20 21 21 21 21 21 21 21 21 21 20 19 19 20 20 20 20 19 19 19 19 19
14 15 14 15 16 16 16 17 17 17 18 18 18 19 19 19 20 20 21 21 21 21 22 22 22 23 23 22 22 23 23 22 22 22 22 22 22 22 22 22 21 20 20
16 15 16 17 17 17 17 18 18 18 19 19 19 19 20 20 21 21 22 22 23 23 23 24 24 24 24 24 25 25 24 24 24 24 23 23 23 24 24 23 23 22 21
16 16 16 17 18 18 19 19 19 19 19 20 20 20 21 22 22 23 23 23 24 24 25 25 25 25 25 25 25 25 25 25 25 25 25 24 24 24 25 25 25 25 24
18 18 17 17 18 19 20 20 20 20 20 20 21 21 22 23 23 23 24 24 24 25 25 26 26 26 26 26 26 26 26 26 26 26 26 26 25 25 26 27 27 27 27
19 19 19 19 19 20 21 21 21 21 21 22 22 23 23 23 23 23 24 25 26 26 27 27 27 28 28 28 28 27 27 27 27 28 28 27 26 26 26 27 27 28 28
19 20 19 20 20 20 21 20 21 22 23 23 24 24 24 24 24 24 25 26 27 27 28 28 28 29 29 29 29 28 28 27 28 29 28 28 27 26 27 26 27 27 28
20 20 20 20 20 19 20 21 22 23 24 24 25 25 25 25 25 26 26 26 27 28 28 28 29 29 28 28 28 28 29 29 29 29 28 28 28 27 26 27 27 28 27
20 20 20 20 20 20 21 22 23 23 24 24 25 26 26 26 26 27 27 27 27 28 28 29 29 28 28 29 29 29 29 29 30 29 28 27 28 28 28 28 28 28 27
21 22 21 21 21 21 22 22 23 23 24 25 26 26 27 27 28 28 28 28 28 28 29 29 29 29 28 28 28 29 29 29 29 29 29 29 28 29 29 29 29 28 28
22 21 21 21 21 22 23 23 24 25 25 26 26 27 27 28 28 28 28 29 29 29 29 29 29 29 28 27 28 29 29 30 30 30 30 30 29 29 29 29 29 29 29
21 22 22 22 23 22 23 24 25 25 26 27 27 27 27 28 28 28 28 30 30 30 30 30 29 28 27 27 28 29 30 30 30 30 31 31 30 31 30 29 30 30 30
21 22 21 21 21 22 22 24 24 24 26 27 26 26 27 27 28 28 29 29 30 30 30 30 29 29 28 29 29 30 30 31 30 31 31 31 31 31 31 31 31 31 31
22 21 21 21 22 22 23 24 24 25 25 26 26 26 27 27 27 28 29 29 30 30 30 30 29 29 29 29 29 29 29 30 29 30 30 31 31 31 32 32 32 33 33
22 22 22 23 23 23 23 24 24 24 24 25 26 26 27 28 28 28 29 29 29 30 30 29 29 29 29 28 28 28 28 29 29 29 30 30 31 32 32 32 33 34 34
22 23 23 23 24 24 23 24 23 23 24 25 26 27 27 27 28 28 29 29 29 29 29 28 28 28 28 27 28 27 27 27 27 27 28 29 30 30 32 32 32 33 34

GEFSSE_500_meanwind_180.txt.gz
Wind_Speed
2 2 3 3 4 4 5 6 6 6 7 7 7 7 7 7 7 7 7 7 6 6 6 5 5 5 5 6 6 6 6 5 5 5 5 5 5 5 5 5 5 4 4
4 4 5 4 5 6 7 7 7 7 8 8 9 9 9 8 8 8 8 8 8 7 7 7 7 7 7 7 7 7 7 7 7 7 6 6 6 6 6 6 6 6 6
6 6 6 6 7 7 8 8 8 9 9 10 10 10 10 9 9 9 9 9 9 8 8 8 8 8 8 8 8 9 9 9 8 8 8 8 8 8 8 8 7 7 7
7 7 8 8 9 9 10 10 10 10 11 11 11 11 11 11 10 10 10 10 10 9 9 9 9 10 10 10 10 10 10 10 10 10 10 9 9 9 9 9 9 9 9
9 9 10 10 10 11 12 12 12 12 13 12 12 12 12 12 12 11 11 11 11 10 10 10 11 11 11 12 12 12 12 12 12 12 12 11 11 11 11 11 11 11 10
11 11 12 12 12 13 14 14 14 14 14 14 13 13 14 13 13 12 12 12 12 12 12 12 12 12 12 13 13 13 13 13 13 13 13 13 12 12 13 13 13 13 12
12 12 13 13 14 14 15 15 15 15 15 15 15 15 15 15 14 14 14 14 14 14 14 14 14 13 13 13 14 14 14 14 14 14 14 14 14 14 14 14 14 15 14
13 13 13 14 15 15 16 16 16 16 17 17 17 16 16 16 16 15 15 15 15 15 15 15 15 15 15 15 15 15 15 16 17 16 15 16 16 16 16 16 16 17 17
14 15 15 15 15 16 17 17 17 18 18 18 18 18 17 17 17 17 16 16 16 16 16 17 17 17 17 17 17 17 17 18 18 18 18 17 17 18 19 18 19 18 19
16 16 16 17 17 17 18 18 19 19 19 19 19 19 19 18 18 18 18 18 18 18 18 18 18 18 18 18 18 18 19 19 19 20 20 20 20 20 21 21 20 20 20
17 17 18 18 19 18 18 19 20 20 20 20 20 20 20 20 20 19 20 20 20 19 19 19 19 19 20 20 20 20 21 22 22 21 21 21 22 22 22 22 21 22 22
18 19 19 19 20 19 19 20 20 21 22 22 21 21 21 22 21 20 20 21 21 20 20 20 21 21 21 21 21 22 22 23 23 23 23 23 23 23 23 24 23 23 23
19 20 20 19 19 20 20 20 21 21 22 22 21 22 23 22 21 21 21 21 22 21 22 22 22 23 23 23 23 23 23 23 24 25 24 24 24 24 24 24 25 24 24
19 20 20 20 20 21 21 21 22 22 23 23 23 23 23 23 23 23 23 23 23 23 23 23 23 24 25 25 24 25 24 25 25 26 26 26 25 26 26 26 26 26 26
20 21 21 20 21 22 22 22 22 23 23 23 23 24 24 24 24 24 24 24 24 24 25 25 25 25 26 26 26 25 26 26 27 27 27 27 27 27 27 27 27 28 27
20 21 21 21 22 23 23 22 22 22 23 23 23 24 25 25 25 25 25 25 25 25 26 27 28 27 26 27 27 27 27 27 27 27 27 27 27 28 28 27 27 27 27
20 21 21 22 22 23 23 23 23 22 23 24 24 25 26 26 26 25 25 25 26 26 26 27 28 28 29 29 28 28 28 27 27 27 28 28 28 28 28 28 27 26 27
21 21 22 22 22 23 23 24 24 24 24 25 25 25 26 25 26 26 26 26 27 28 28 28 29 29 30 30 29 28 28 27 28 28 28 29 29 28 28 28 28 28 28
21 21 22 23 23 23 24 24 25 25 25 26 25 25 25 25 26 27 28 28 29 29 29 29 30 30 30 30 30 29 29 29 29 29 29 29 29 28 28 27 27 27 28
22 22 22 23 23 23 24 25 25 25 25 26 25 26 26 26 27 28 28 29 30 31 31 30 29 29 29 29 29 29 28 29 29 30 29 29 28 29 28 28 28 27 27
23 23 23 23 24 24 24 25 25 26 26 26 26 26 26 26 27 28 29 29 30 31 31 30 29 29 28 29 29 29 29 29 29 29 29 28 29 29 29 29 28 27 27
22 23 23 23 24 24 25 25 26 26 26 26 26 27 27 27 28 28 28 28 28 29 29 29 29 29 29 29 29 30 29 28 28 28 29 28 27 28 28 29 29 29 29
22 22 23 23 24 24 25 25 26 27 27 27 27 28 28 28 28 28 28 28 28 28 29 29 29 29 30 29 29 29 29 28 28 27 27 27 27 27 28 29 29 29 30
22 23 24 24 24 24 25 26 27 27 28 28 29 29 28 27 27 28 28 29 29 28 28 29 29 29 29 29 29 29 29 28 27 26 26 27 28 28 28 29 28 28 29
23 24 24 24 24 25 26 27 27 28 28 28 28 28 27 27 27 28 28 28 28 29 29 28 28 28 28 28 28 27 27 26 26 26 25 27 28 28 29 29 28 28 28
24 24 24 24 25 26 26 27 28 28 28 27 26 26 27 27 26 27 28 28 28 29 29 27 27 27 27 26 26 26 26 26 26 26 26 26 27 28 28 28 28 28 28

GEFSSE_500_meanwind_186.txt.gz
Wind_Speed
3 2 3 2 3 3 4 5 5 6 7 8 9 10 10 10 11 11 11 11 11 11 11 10 9 9 9 9 9 9 9 8 8 8 8 8 8 8 7 7 7 6 6
4 4 3 3 4 4 6 6 7 8 8 9 10 10 11 11 12 12 12 12 12 12 12 11 11 10 10 10 10 10 10 10 10 10 9 9 9 9 9 8 8 7 7
5 4 4 4 5 5 6 7 8 8 9 11 12 12 12 13 13 13 13 13 13 13 12 12 12 12 11 11 12 12 12 11 11 11 11 11 10 10 10 10 9 9 9
6 6 5 6 7 7 7 8 9 10 11 12 12 13 13 14 14 13 13 14 14 13 13 13 13 13 13 13 13 13 13 13 13 13 12 12 12 11 11 11 11 11 11
7 7 7 7 8 8 9 10 10 12 12 13 13 13 14 14 14 14 14 14 15 14 14 14 14 14 14 14 14 14 15 15 15 14 14 14 13 13 13 13 13 13 13
9 9 9 9 9 10 11 12 13 13 14 14 14 14 15 16 16 15 15 15 16 15 16 16 15 15 15 15 15 15 16 16 16 16 15 15 15 15 15 15 15 15 14
11 11 11 11 11 11 12 12 14 14 15 15 15 16 16 16 16 16 16 17 16 16 16 17 16 16 16 16 16 16 17 16 16 16 16 16 16 16 17 17 16 16 15
11 12 12 13 12 12 13 13 14 15 16 16 17 16 16 16 17 18 18 18 18 18 18 18 18 18 18 18 18 18 18 18 17 17 17 18 17 17 18 18 17 17 16
12 13 14 13 13 13 14 15 16 16 17 17 17 17 17 18 18 18 19 20 19 19 19 19 19 19 19 19 19 19 19 19 19 19 19 19 19 19 19 20 20 18 18
13 14 14 14 14 15 15 16 17 18 18 18 18 19 19 19 19 19 20 20 20 20 20 20 20 20 20 19 20 21 21 20 20 20 20 20 21 21 21 21 20 20 20
14 14 14 15 16 16 17 18 18 19 19 19 19 19 20 20 20 20 21 21 21 21 20 21 21 21 21 21 20 21 22 22 22 22 22 22 22 23 22 22 22 22 21
14 14 15 16 17 17 18 19 19 19 19 20 20 20 20 20 20 20 21 22 22 21 21 22 21 22 22 22 22 23 23 24 24 24 24 24 24 24 24 24 23 23 22
16 16 17 17 18 18 19 19 20 20 20 20 21 20 20 21 20 21 22 22 22 22 22 22 23 23 23 23 24 24 24 24 25 26 25 25 25 25 24 24 25 24 24
17 18 18 18 19 19 20 20 20 21 20 21 21 21 20 21 21 22 23 23 23 22 22 23 24 24 24 24 24 25 25 26 26 27 27 26 26 26 26 25 25 25 25
17 18 19 19 20 21 21 21 21 22 22 22 21 21 21 22 22 22 23 23 23 23 23 23 24 24 24 25 25 25 25 27 27 28 28 27 27 27 27 26 26 26 26
16 18 19 20 21 21 21 20 20 21 22 22 22 22 22 22 23 23 23 24 24 24 24 24 25 25 25 25 26 26 26 27 28 28 28 28 28 28 28 28 28 27 27
17 18 19 20 21 21 21 20 21 21 21 22 22 22 23 23 23 23 23 24 24 24 24 25 26 26 26 26 27 27 27 27 28 28 28 29 28 28 28 28 29 29 28
19 19 20 19 20 21 21 21 21 21 21 22 22 23 23 23 24 24 24 24 24 24 25 25 26 27 27 28 28 28 28 28 28 28 28 28 29 29 28 28 28 29 29
19 20 20 20 22 21 21 22 22 22 22 22 22 23 23 24 24 24 25 25 25 25 26 26 26 27 28 28 28 29 29 28 28 29 28 29 29 29 29 29 29 28 28
19 20 21 21 21 20 20 21 22 22 22 22 23 23 24 25 25 25 26 26 26 26 26 26 27 27 27 28 28 29 29 28 28 27 27 27 28 28 29 29 29 28 28
20 21 22 22 21 20 21 21 21 21 21 22 23 24 25 26 26 26 27 27 27 27 27 27 26 27 27 28 28 27 27 27 27 27 27 27 27 27 27 27 27 27 28
22 22 22 20 20 21 21 20 20 21 22 24 24 25 25 26 27 27 28 28 27 27 27 26 26 27 26 27 26 26 26 26 27 27 27 27 27 27 26 26 27 27 28
20 20 20 20 21 20 20 20 21 22 23 24 24 25 25 27 27 27 27 27 27 26 26 26 26 26 26 26 26 26 26 25 25 26 27 27 27 26 26 26 26 26 27
19 19 19 20 19 20 20 21 22 23 24 24 24 25 25 25 25 26 26 26 26 25 25 26 26 26 25 25 25 25 25 25 24 24 25 25 25 25 26 25 25 26 27
18 19 20 19 19 20 21 21 22 23 24 24 24 25 25 25 25 25 25 25 25 25 25 26 25 25 24 24 24 24 24 24 24 23 23 24 25 25 25 25 25 26 26
18 18 18 19 19 19 20 21 22 23 23 23 24 25 26 26 26 26 26 24 24 24 24 25 24 24 23 23 23 23 23 23 24 23 22 23 24 25 25 25 26 26 27

GEFSSE_500_meanwind_192.txt.gz
Wind_Speed
3 3 4 5 5 5 5 5 6 6 6 6 7 7 8 9 10 11 11 11 12 12 12 12 12 12 12 12 11 11 11 11 10 10 10 9 9 9 9 9 9 9 9
4 4 5 6 6 6 6 6 6 6 7 7 8 9 9 10 11 11 12 12 12 13 13 13 13 13 13 13 13 12 12 12 12 11 11 11 11 11 11 11 11 10 10
5 5 6 7 7 7 7 6 7 7 8 9 10 10 11 11 12 12 13 13 14 14 14 13 13 13 13 14 14 14 14 13 13 13 13 12 12 12 12 12 12 12 11
6 7 7 8 8 8 8 7 8 9 9 10 11 12 12 13 13 13 14 14 15 15 14 14 14 14 15 15 15 15 15 15 15 14 14 14 14 14 14 14 13 13 13
7 8 9 9 9 9 8 8 9 10 10 11 12 12 13 14 14 14 15 15 16 16 16 16 16 16 15 16 16 16 16 16 16 16 15 15 15 15 15 14 14 14 14
8 9 10 10 10 10 9 9 10 11 11 12 12 13 14 15 15 15 16 16 17 18 18 18 18 18 17 17 17 17 17 17 17 17 16 16 16 17 16 16 16 16 16
10 10 11 11 11 11 11 11 12 12 12 13 14 14 15 16 16 16 17 18 18 19 19 19 19 19 19 19 18 18 18 18 19 18 18 17 17 17 17 17 17 17 17
11 12 13 13 12 13 13 13 13 13 14 15 15 16 16 16 16 17 18 19 20 20 20 20 20 20 20 20 20 20 19 19 20 20 20 19 19 19 18 18 18 18 18
12 12 13 13 13 13 14 14 14 15 15 16 16 17 18 17 18 19 20 21 21 22 22 22 22 22 22 21 21 21 21 21 21 21 22 21 21 20 20 19 19 20 20
12 13 13 13 14 14 14 14 14 15 16 17 18 18 19 19 20 20 21 22 22 22 22 23 23 23 23 23 23 22 22 23 23 23 22 22 22 22 21 21 21 21 21
14 14 14 14 14 15 15 15 15 16 16 17 19 20 20 21 21 22 22 23 23 23 23 23 24 24 24 24 24 24 23 23 24 24 24 23 23 23 23 23 23 23 23
15 15 15 15 15 16 17 17 16 17 17 19 20 21 22 22 22 23 23 23 23 23 24 24 25 25 25 25 25 25 25 24 25 25 25 25 25 25 25 25 25 25 24
15 16 16 16 18 18 18 17 18 18 19 20 21 22 23 23 23 24 24 24 24 24 24 25 25 26 26 26 26 26 26 26 26 26 26 27 27 28 27 26 26 26 27
16 17 17 18 19 19 19 19 19 20 21 21 22 23 23 23 23 24 24 24 24 24 24 25 25 26 26 26 26 26 26 27 26 27 28 28 28 29 28 28 28 27 27
16 17 18 18 18 19 19 20 20 21 22 23 23 23 23 23 23 23 24 24 24 25 25 25 25 26 27 27 27 27 27 27 27 27 28 28 29 30 30 30 29 29 28
16 16 17 17 18 19 20 20 20 21 22 22 22 23 23 23 23 23 24 25 25 25 25 26 26 26 27 28 28 28 28 28 28 28 28 28 30 31 31 31 31 30 30
16 16 17 18 19 20 20 21 21 22 22 22 22 22 22 22 23 24 24 24 25 26 26 26 27 27 28 28 28 28 28 28 29 29 29 30 30 30 30 31 32 31 31
16 17 17 19 20 20 21 21 21 21 22 21 21 22 22 23 24 24 24 25 25 25 26 27 27 28 28 28 28 28 29 29 29 29 29 29 29 30 31 31 32 32 32
16 16 17 19 20 20 19 19 20 20 21 22 22 22 23 23 23 23 24 25 26 26 26 26 27 27 27 27 28 28 29 29 29 29 29 28 29 30 31 31 32 32 32
16 17 18 19 19 19 19 19 19 20 20 21 22 22 22 23 23 23 24 25 26 26 26 26 27 26 27 27 28 28 29 29 29 28 29 29 29 29 30 30 31 32 32
17 18 19 19 19 19 19 20 21 21 21 21 21 21 22 23 24 24 25 25 26 26 26 26 26 26 26 27 27 27 28 28 28 28 28 28 28 29 29 30 31 31 32
18 19 19 20 20 20 20 20 22 22 21 21 21 22 23 23 24 25 25 25 26 26 25 26 26 26 26 26 26 26 27 27 27 28 28 28 28 28 29 29 30 31 32
19 19 19 20 20 19 19 19 20 21 21 22 22 23 23 23 24 25 26 26 26 26 25 25 25 25 25 25 26 26 25 25 26 27 27 27 27 28 29 29 29 30 31
19 19 19 20 20 19 20 20 20 21 22 22 22 23 23 24 25 25 25 25 25 25 24 24 24 24 24 24 24 25 26 26 26 26 27 27 27 28 28 28 29 29 29
19 19 20 21 20 20 19 19 20 21 21 21 22 22 23 24 24 25 25 25 25 25 24 24 24 24 24 24 25 26 26 26 26 26 27 27 27 27 27 28 28 28 29
19 19 20 21 21 21 21 20 20 20 20 21 22 23 23 24 25 25 26 25 24 24 24 24 25 25 25 25 26 26 26 25 26 26 26 26 26 27 27 27 27 27 28

GEFSSE_500_meanwind_198.txt.gz
Wind_Speed
1 1 1 2 2 3 5 5 5 6 6 5 5 5 5 5 6 6 7 7 7 7 8 8 8 8 8 9 9 9 9 9 9 9 9 10 10 10 10 10 10 10 10
2 2 3 4 4 5 6 7 7 7 7 6 6 6 6 7 7 7 8 8 8 9 9 9 9 10 10 10 10 10 10 10 10 10 11 11 11 11 11 11 11 11 11
4 4 4 5 5 6 7 7 7 7 7 7 7 7 7 7 8 8 9 9 9 10 10 10 11 11 11 11 12 11 11 11 12 12 12 12 12 12 13 13 12 12 13
5 5 5 6 7 7 8 8 8 8 8 8 8 8 8 9 9 9 10 10 11 11 12 11 12 12 12 12 12 13 12 12 13 13 14 13 13 13 14 14 14 14 15
6 6 6 7 7 8 10 10 10 10 10 9 9 9 10 10 11 11 11 12 12 12 13 13 13 13 14 13 13 13 14 14 14 14 15 15 15 15 15 15 16 15 15
7 7 7 8 8 9 10 11 10 11 11 11 11 11 11 12 12 12 12 13 13 13 14 14 15 15 15 15 15 15 15 16 16 15 16 16 17 16 16 16 17 17 16
8 8 8 8 9 9 10 10 11 11 12 12 12 13 13 13 13 13 13 14 14 15 15 15 16 17 17 16 16 16 16 17 17 17 17 18 18 17 17 17 18 18 18
9 10 10 10 10 10 11 12 12 12 13 13 14 14 15 15 14 15 15 16 16 16 17 17 17 18 17 17 17 17 18 19 19 19 19 19 19 19 18 18 19 19 19
10 10 11 11 11 12 13 13 13 13 14 15 15 15 16 16 16 16 17 17 18 18 18 18 18 19 19 19 19 19 19 19 20 20 20 20 20 20 20 19 19 19 20
11 11 12 12 12 13 13 13 14 15 15 16 16 16 17 17 18 18 18 18 19 19 19 19 20 20 20 20 20 20 20 20 20 20 21 21 21 22 21 21 20 20 21
12 13 13 13 13 14 14 15 16 17 17 16 17 17 17 18 19 19 20 20 20 20 21 21 21 22 22 22 22 22 22 21 21 21 21 22 22 23 23 23 22 22 22
14 14 14 14 13 14 15 16 17 17 18 17 17 18 19 19 20 21 21 22 22 22 22 23 23 23 23 23 23 23 23 23 23 22 22 22 23 24 24 24 24 24 24
15 15 16 15 14 15 16 17 17 18 18 18 18 19 20 21 21 22 23 23 23 23 24 24 24 23 23 23 23 23 24 24 24 25 24 24 24 25 25 26 26 26 26
16 15 16 16 15 16 16 17 18 18 18 18 19 20 21 22 23 23 24 24 24 24 24 24 24 24 24 25 25 24 25 26 26 25 25 25 25 26 26 26 27 28 28
16 16 17 17 17 17 17 18 18 18 19 19 20 21 22 23 24 24 24 24 24 25 25 25 24 25 25 26 26 26 26 27 27 27 26 26 26 27 27 28 28 28 29
16 17 17 17 18 17 18 18 19 19 20 20 21 22 24 24 24 24 24 25 25 25 24 25 25 26 26 26 27 27 27 27 27 27 27 26 26 27 28 29 29 29 30
17 17 18 17 17 18 18 18 19 20 21 21 22 23 24 24 25 26 25 25 25 24 25 25 25 26 27 27 28 28 28 27 27 26 27 27 27 28 28 29 29 30 31
18 18 18 17 17 18 18 19 20 20 21 22 23 23 24 25 25 25 25 25 25 25 24 25 25 26 26 27 28 28 28 27 26 26 27 27 27 28 28 29 29 30 31
19 19 19 19 19 19 19 20 21 21 22 22 23 24 24 24 24 24 25 24 24 24 24 24 25 26 26 27 27 27 26 27 27 27 27 27 28 28 28 29 30 30 31
19 20 20 20 21 20 20 21 22 22 23 22 23 23 24 24 24 25 24 24 24 24 24 25 25 25 25 25 26 26 26 26 27 27 27 27 28 28 28 29 29 30 30
20 20 20 20 21 20 20 21 22 23 23 23 23 24 24 24 25 25 24 24 24 24 25 25 25 24 24 25 25 25 25 26 26 26 26 27 27 28 28 29 30 30 30
19 19 20 21 21 21 21 22 23 23 24 24 24 25 25 24 24 24 24 24 23 23 23 23 23 23 23 23 23 23 24 25 25 26 26 27 27 28 28 29 29 29 30
20 20 21 21 21 22 23 24 23 23 24 24 24 24 24 24 24 24 23 22 23 23 23 23 23 24 24 24 24 24 24 24 25 25 26 26 27 27 28 28 29 29 30
21 21 21 21 22 23 23 23 23 23 23 24 24 24 24 24 23 23 23 23 23 23 23 24 24 24 25 25 25 24 24 24 24 23 25 26 27 27 27 28 29 30 30
21 21 21 21 23 24 24 23 23 24 24 24 25 25 24 24 24 24 24 23 23 23 23 23 24 24 24 23 24 24 24 24 24 24 25 26 27 28 28 28 28 29 30
21 21 22 22 23 24 25 24 25 24 24 24 24 24 23 24 24 24 24 24 24 24 24 24 23 23 23 23 24 25 25 24 24 25 25 26 27 27 27 27 28 28 29

GEFSSE_500_meanwind_204.txt.gz
Wind_Speed
6 7 7 7 7 7 7 8 8 8 8 8 9 9 10 10 9 9 9 9 9 9 9 9 9 9 9 10 9 10 10 10 10 10 10 10 11 11 10 11 10 10 10
8 8 9 9 8 9 9 9 9 10 10 9 10 11 11 11 10 10 9 9 9 9 10 10 10 10 10 11 11 11 11 12 12 12 12 12 12 12 12 12 11 11 12
9 10 10 10 10 10 10 11 11 11 10 10 11 11 12 12 12 11 11 10 11 11 11 11 11 11 11 12 12 12 13 13 13 13 13 13 13 13 13 13 13 13 13
10 10 10 10 11 11 12 11 12 12 11 11 12 12 12 13 13 13 12 12 12 12 12 12 12 12 13 13 13 13 13 14 14 15 15 15 15 15 15 15 15 14 14
11 11 11 11 11 11 12 12 12 13 13 13 14 14 13 14 14 14 14 14 13 13 13 13 13 14 14 14 14 14 14 14 14 15 15 16 16 15 16 16 16 16 16
12 12 12 11 12 12 12 13 13 13 14 14 14 15 15 15 15 15 15 15 15 14 14 14 15 15 15 15 15 15 15 15 16 16 16 16 16 16 16 16 17 17 17
12 12 12 12 13 13 13 13 13 14 14 14 15 16 17 17 16 16 16 16 16 16 15 16 16 16 16 16 16 16 17 17 17 18 17 17 17 17 17 17 18 19 18
13 13 13 13 13 13 13 13 14 15 15 15 16 17 17 18 17 17 17 17 17 17 17 17 17 17 17 17 17 17 18 18 18 19 18 18 18 19 19 19 19 19 19
14 14 15 14 14 15 15 15 15 16 17 16 17 17 18 18 18 18 18 18 19 19 19 18 19 18 19 18 18 18 18 19 20 20 20 19 19 20 20 20 20 20 20
15 15 15 15 15 16 16 16 17 18 18 17 18 18 19 19 19 19 19 19 19 19 20 20 20 20 20 20 20 20 19 20 21 21 21 19 20 21 21 22 21 22 21
16 16 16 16 16 16 16 17 17 18 18 18 19 19 20 20 21 20 20 20 20 21 21 21 21 21 21 21 21 20 20 21 22 22 21 21 21 22 22 23 23 23 23
17 17 17 17 17 16 17 17 18 18 18 19 20 20 21 21 21 21 21 21 22 22 22 22 22 22 23 22 22 22 22 22 22 22 22 22 22 23 24 23 23 23 24
18 17 18 18 17 17 18 18 19 20 20 20 20 20 21 21 21 22 22 23 22 23 24 24 24 24 24 24 24 24 24 24 23 24 24 24 25 25 25 25 24 24 24
18 19 19 18 18 18 17 18 19 20 20 20 20 20 21 21 21 23 23 24 25 24 24 25 25 25 25 25 25 24 24 24 25 25 25 25 26 26 26 26 26 26 26
19 19 20 19 19 19 19 19 19 20 19 20 20 21 21 21 22 23 24 25 25 25 26 26 26 26 26 25 25 25 25 25 26 26 25 25 26 26 27 27 27 27 26
21 21 21 19 19 19 20 20 21 21 21 21 22 22 22 23 23 24 24 25 25 26 26 26 25 26 25 25 26 26 26 26 27 26 25 25 25 26 26 27 27 27 28
21 21 21 20 20 20 20 21 22 22 22 22 22 22 23 23 24 24 25 25 25 25 25 26 26 25 25 25 25 25 25 25 26 26 25 25 26 26 27 27 27 28 28
20 20 20 21 20 20 21 22 22 22 23 22 22 23 23 24 25 25 25 26 26 26 26 26 26 26 26 25 24 24 24 24 25 25 26 26 26 26 27 27 27 28 28
19 19 19 20 21 21 21 22 23 22 22 22 23 23 24 25 26 26 26 26 26 26 26 27 26 26 26 25 24 24 24 24 24 25 26 26 26 26 26 27 27 28 29
19 19 19 20 21 22 22 22 22 21 22 23 23 24 25 25 26 26 26 26 26 26 26 26 25 25 25 25 25 24 24 24 24 25 25 26 26 26 26 27 27 27 29
20 20 20 21 22 22 22 21 21 22 23 23 24 25 26 26 26 26 26 26 26 26 26 26 25 25 25 25 24 23 24 24 24 24 24 25 25 26 26 27 27 28 28
21 21 21 21 21 21 22 22 23 23 23 24 25 26 26 26 27 27 26 26 26 26 26 25 26 26 26 25 24 23 24 24 25 25 25 25 25 26 26 27 27 28 28
21 20 20 20 20 21 21 23 24 24 24 24 25 26 26 26 26 27 28 27 27 27 26 25 25 25 25 25 24 24 24 24 23 24 24 25 25 25 26 26 27 27 28
21 20 20 20 20 21 21 23 24 25 25 25 26 26 26 26 27 27 27 27 27 27 27 26 25 25 26 25 25 25 25 24 23 22 23 24 25 25 25 26 26 26 27
21 21 21 21 21 21 22 23 24 25 25 26 25 25 25 26 26 25 26 27 27 27 27 26 26 25 25 25 25 25 25 24 24 23 23 23 24 24 25 25 26 25 26
21 21 21 21 22 22 23 24 25 25 25 26 26 25 26 26 26 25 25 25 26 26 25 25 25 25 24 24 25 25 24 24 25 25 24 23 23 24 24 24 25 25 25

GEFSSE_500_meanwind_210.txt.gz
Wind_Speed
8 8 7 7 7 7 7 8 8 9 10 11 11 11 12 12 12 12 13 13 13 13 13 13 13 13 12 12 12 12 12 12 12 12 12 11 12 12 12 11 11 11 11
8 8 7 7 8 8 9 9 10 10 11 11 11 12 13 13 14 14 14 14 15 15 14 14 14 13 13 13 13 13 13 14 14 13 13 13 13 13 12 12 13 12 11
7 8 8 8 9 9 9 10 11 11 11 11 12 12 13 14 14 14 15 16 16 16 16 15 15 15 14 14 14 14 14 15 15 14 14 14 14 15 14 14 14 14 13
8 8 9 9 10 10 10 11 11 12 12 12 13 13 14 14 15 15 16 16 16 16 16 15 15 16 15 15 15 15 15 15 15 16 16 16 15 16 16 16 15 15 15
9 8 9 9 10 11 11 12 12 13 13 13 13 14 14 15 15 16 16 16 16 16 16 15 15 16 16 16 16 16 16 16 17 17 17 17 16 17 17 16 16 16 16
9 10 10 11 11 12 12 12 13 13 13 13 14 14 15 15 16 16 16 17 16 16 16 16 16 17 17 17 17 17 17 17 17 17 18 18 17 17 17 16 17 17 17
10 11 11 11 12 12 13 13 13 14 14 14 15 15 16 16 17 17 17 17 17 17 17 17 18 18 18 17 18 18 18 18 18 18 18 19 18 18 18 17 17 17 18
11 12 12 12 12 12 13 14 14 14 14 15 16 17 17 17 17 17 17 17 17 18 18 18 19 19 19 18 18 18 18 19 19 19 19 19 19 19 18 18 18 18 18
12 12 13 13 13 14 14 15 14 14 15 15 16 17 17 17 17 17 18 18 18 18 19 19 19 19 19 19 19 20 20 20 20 20 20 20 20 20 19 20 20 20 20
13 13 13 13 14 15 15 16 16 15 16 16 16 17 17 17 17 17 17 17 18 18 19 20 20 20 20 20 20 21 21 21 21 21 21 21 21 21 21 21 21 21 21
13 15 15 14 14 15 15 15 15 15 16 16 17 18 18 17 17 17 17 18 19 19 20 20 20 21 21 21 21 21 22 22 22 22 22 22 21 22 22 22 22 22 22
15 15 16 16 15 15 15 15 15 15 16 16 17 17 17 17 16 17 17 18 19 20 20 20 20 21 22 22 22 22 22 23 23 23 23 23 22 22 23 23 23 23 23
15 16 16 16 17 16 16 15 15 16 16 16 16 16 16 16 17 18 18 19 20 20 21 21 21 22 22 22 22 23 23 23 23 24 24 24 24 24 24 24 24 24 24
17 17 17 17 18 18 16 15 16 16 16 16 17 17 17 18 18 19 19 19 20 20 21 21 22 22 23 23 23 23 23 23 23 24 25 25 25 25 24 24 25 26 25
18 17 17 17 17 17 17 16 16 16 16 16 17 18 18 18 18 19 19 19 20 20 21 21 21 22 22 22 22 22 23 24 23 24 25 25 25 25 25 24 25 25 25
19 19 18 17 17 17 17 17 16 17 18 19 20 19 18 18 19 19 19 18 19 20 20 21 22 22 21 21 21 21 22 23 23 24 25 25 25 25 26 26 25 26 26
20 20 19 17 16 16 17 17 18 18 18 19 19 19 19 19 19 19 19 19 20 20 20 21 21 21 21 21 21 21 22 22 22 23 24 24 25 25 25 26 26 26 27
21 21 19 17 17 17 17 17 18 18 18 18 19 19 20 20 20 20 20 20 20 20 20 20 21 21 21 21 21 22 22 22 22 23 23 23 24 25 25 26 26 27 28
20 20 18 18 17 17 17 18 19 18 18 19 19 19 20 20 20 21 20 19 20 20 20 21 22 22 22 22 22 22 22 22 22 22 23 24 24 25 26 27 26 27 28
18 19 19 19 19 18 18 18 19 19 20 19 19 19 20 21 21 21 20 20 21 21 21 22 22 23 23 22 22 22 21 21 22 23 23 24 25 26 26 26 27 27 28
19 19 19 19 18 18 18 18 18 19 20 20 20 20 20 21 20 21 22 22 22 22 22 23 24 24 24 23 22 22 22 22 23 23 24 24 24 25 26 27 28 28 28
20 19 20 19 18 18 19 19 19 19 20 21 21 20 21 20 21 21 22 23 23 23 24 24 24 24 23 23 23 23 23 23 24 23 24 23 24 24 25 26 27 27 27
20 20 20 20 19 18 18 19 19 20 20 20 21 21 22 22 22 22 21 22 23 24 24 24 24 23 23 23 24 23 23 22 23 23 23 23 23 24 24 24 25 26 26
20 20 21 20 20 19 19 18 19 20 20 20 20 21 22 21 21 20 21 22 23 23 23 23 23 22 22 23 23 22 22 22 22 22 23 24 24 23 23 24 24 25 26
21 21 21 21 21 19 19 19 20 19 19 19 19 20 21 21 21 20 21 23 23 23 23 23 23 22 22 22 23 23 22 22 22 22 22 23 24 24 24 24 25 26 26
21 21 21 21 21 20 19 19 19 19 19 20 20 21 21 21 21 20 21 22 22 22 21 22 22 22 22 22 23 23 22 23 23 22 22 23 23 24 24 24 25 27 27

GEFSSE_500_meanwind_216.txt.gz
Wind_Speed
9 9 9 8 8 8 7 7 7 7 7 8 9 9 10 10 11 11 11 11 11 12 12 13 13 13 13 13 13 13 13 13 13 13 12 13 12 12 12 11 11 12 12
9 9 9 9 8 9 8 8 8 8 8 9 10 10 11 12 12 12 12 12 12 13 13 13 13 14 13 13 13 13 14 14 14 14 14 14 13 13 13 13 12 13 13
10 10 9 9 9 9 9 9 9 10 10 10 10 11 12 12 12 13 13 13 13 14 14 14 14 14 14 14 14 14 14 14 15 15 15 15 15 14 14 14 14 14 14
10 10 9 10 9 10 10 9 10 10 11 11 11 12 12 13 13 13 14 14 15 15 15 15 15 15 15 15 15 15 15 15 15 16 16 15 15 15 15 15 16 15 16
10 10 10 9 9 10 10 11 11 11 12 12 13 13 13 13 13 14 14 15 15 16 16 16 16 17 17 16 16 16 16 16 16 17 17 17 16 16 16 16 17 17 17
11 10 10 10 10 10 10 10 11 11 12 12 13 13 13 14 14 15 16 16 16 16 17 17 18 17 18 18 17 17 17 17 17 17 18 18 17 17 17 17 17 17 17
12 11 12 11 11 11 12 11 12 12 13 13 13 13 14 14 15 16 16 16 16 17 17 17 18 18 19 19 19 18 18 18 18 18 18 18 18 18 18 18 17 17 17
12 12 12 12 11 11 12 12 13 13 13 13 13 14 15 15 16 17 17 17 17 17 18 18 19 19 19 19 19 20 20 19 19 19 19 19 19 19 19 18 18 18 18
12 12 12 12 12 12 12 13 14 14 14 14 14 14 15 16 16 17 17 17 17 18 18 18 19 20 20 20 20 20 20 21 20 20 20 20 19 20 20 20 19 19 20
12 13 13 13 13 13 14 14 14 14 15 15 15 15 16 16 17 17 17 18 18 19 19 19 20 20 21 21 21 21 21 21 21 20 20 20 21 20 21 21 21 21 21
13 13 14 14 14 14 15 16 16 15 15 15 16 16 16 17 18 18 18 18 18 19 20 20 21 21 21 21 22 21 21 21 21 21 21 21 22 21 22 22 22 22 22
13 14 14 15 15 15 16 17 17 17 17 16 16 16 17 17 18 19 19 20 19 19 20 21 21 21 22 22 22 21 22 22 22 22 22 23 23 22 22 23 23 23 23
14 15 15 15 16 17 18 18 18 18 18 17 17 17 18 19 19 19 19 20 20 20 20 20 21 21 22 22 22 22 22 22 23 22 22 22 23 23 23 23 24 24 24
15 16 16 17 18 19 19 18 19 18 18 18 18 18 18 20 20 19 19 20 20 20 21 21 21 22 22 22 22 22 22 22 22 22 23 23 23 23 24 24 24 25 25
16 17 17 18 19 20 20 19 19 19 19 18 18 19 20 20 19 19 19 19 19 20 21 21 21 21 21 21 22 22 22 22 22 23 23 23 23 23 24 25 25 26 26
17 18 18 18 19 20 20 20 20 20 20 19 20 20 20 20 19 19 19 20 20 20 20 21 21 21 21 21 21 21 21 21 22 22 23 24 24 24 25 25 25 26 26
19 19 19 19 20 20 20 21 21 20 20 19 19 19 19 19 19 19 20 21 20 21 21 21 21 21 22 22 22 22 22 22 23 23 23 24 24 25 25 25 25 26 26
19 20 20 21 21 20 21 21 21 20 20 19 19 19 19 19 19 20 21 21 21 22 22 22 22 22 22 23 23 23 23 23 24 24 24 24 25 25 25 25 25 26 26
20 20 21 21 20 20 20 21 21 20 20 19 19 19 19 19 20 21 22 22 22 21 22 23 23 23 23 23 24 24 24 24 24 25 25 25 25 25 25 25 25 25 26
21 21 21 20 20 20 20 21 22 20 19 19 19 20 20 20 20 21 22 22 22 21 22 22 23 24 24 24 24 24 24 24 24 25 25 25 24 24 24 24 25 25 26
21 21 21 21 20 21 22 22 21 20 19 19 19 20 20 21 21 21 22 22 22 22 22 22 23 24 24 24 24 24 24 24 25 24 24 25 24 24 24 25 26 26 26
21 22 21 21 20 20 20 20 20 19 19 19 19 19 21 21 21 21 21 22 22 22 22 22 23 24 24 25 25 24 25 25 25 25 25 25 25 25 25 25 26 27 27
22 21 20 20 18 18 18 19 18 18 18 18 19 19 20 20 21 21 21 21 21 21 22 24 24 24 24 25 25 25 24 24 25 25 25 25 25 26 26 26 27 28 28
22 20 19 19 19 19 19 19 18 18 19 19 20 21 21 20 21 21 22 22 21 22 23 23 24 24 24 24 24 25 25 25 25 25 26 26 27 27 27 27 27 28 29
22 21 19 20 20 19 19 20 20 20 19 19 21 21 22 22 22 22 21 21 22 23 24 24 24 24 24 24 24 25 25 26 26 26 26 27 27 27 27 27 27 28 28
22 21 20 20 20 20 20 20 21 20 20 20 21 21 22 21 21 21 21 21 22 23 23 23 23 24 24 23 24 24 25 25 25 25 25 26 26 26 26 27 27 28 29

GEFSSE_500_meanwind_222.txt.gz
Wind_Speed
7 6 6 4 4 4 5 5 6 6 6 6 6 6 6 6 6 6 6 6 6 6 6 6 6 7 7 7 8 8 8 9 9 10 10 11 11 12 12 12 12 12 13
7 7 6 5 5 4 5 7 7 7 7 7 7 7 7 7 7 7 7 7 7 7 7 7 7 7 8 8 9 9 9 10 11 11 12 12 12 13 13 13 13 14 14
7 7 7 6 6 6 6 8 8 8 8 8 8 7 8 8 8 7 8 8 8 8 8 8 8 8 9 9 10 10 11 11 12 12 13 13 14 14 14 15 15 15 15
7 8 8 7 7 8 8 8 8 9 9 8 8 9 9 9 9 8 8 8 8 8 9 9 9 9 9 10 10 11 12 12 13 13 14 14 15 15 15 16 16 16 17
8 8 9 8 9 9 9 9 9 10 10 10 9 10 10 10 9 9 10 10 9 10 10 10 10 11 11 11 11 12 13 13 14 14 15 15 15 16 16 16 16 17 17
10 10 10 9 9 10 10 10 10 10 11 11 11 11 10 10 10 11 11 10 10 11 11 12 12 12 12 13 13 14 14 15 15 16 16 16 16 16 17 17 17 17 18
10 10 10 10 10 11 10 10 10 10 11 11 11 11 11 12 12 12 12 11 11 12 12 12 13 13 14 14 14 14 14 16 17 17 18 17 17 17 17 18 18 18 19
9 10 10 9 9 10 10 10 10 10 10 11 11 11 11 12 12 12 12 12 12 12 12 13 13 14 14 15 15 16 16 17 17 18 18 19 18 18 18 19 19 19 19
9 10 10 11 10 11 11 11 11 11 11 11 12 12 12 12 13 13 13 13 13 13 14 14 15 15 15 16 16 16 17 18 18 18 18 19 19 20 20 20 21 21 20
10 11 12 13 13 13 13 13 13 13 13 13 12 13 13 13 14 14 14 15 15 15 15 15 16 16 17 17 17 17 18 18 19 18 19 19 19 21 21 21 21 22 21
11 12 14 14 14 14 14 15 15 15 14 14 14 14 14 14 15 14 15 15 15 15 16 16 16 17 17 18 17 17 18 18 18 19 19 19 20 20 21 22 22 22 22
13 14 15 15 15 15 16 16 17 16 16 16 16 16 16 16 16 15 15 14 15 16 17 18 18 18 18 19 19 18 19 19 19 19 19 19 20 20 20 21 21 21 21
14 14 15 16 16 17 18 18 18 18 18 18 18 18 18 18 18 17 16 15 16 17 18 19 20 20 19 19 19 19 19 20 20 20 20 20 20 21 21 21 21 21 22
15 15 17 17 17 18 19 20 19 19 19 19 19 19 19 18 18 18 17 16 16 17 18 19 20 20 18 18 18 19 20 20 20 21 21 21 22 21 21 21 20 21 22
17 17 18 19 19 19 20 21 21 21 21 20 20 20 20 20 19 18 18 18 18 18 19 19 19 19 18 18 19 19 20 20 21 21 22 23 23 22 22 21 20 21 22
18 18 19 21 21 21 22 22 21 21 22 22 21 22 21 21 20 19 19 19 19 19 19 19 20 19 19 19 19 20 20 21 21 21 22 22 22 22 22 22 22 22 23
19 20 20 21 21 22 22 22 21 22 22 22 22 22 21 21 21 20 19 18 19 19 19 20 20 20 20 20 20 20 21 21 22 22 22 22 22 22 23 24 24 23 24
20 21 21 21 22 23 24 24 24 23 22 23 23 22 21 21 20 19 19 19 20 20 20 21 21 21 21 21 21 21 21 22 22 22 23 23 22 23 24 24 24 25 25
22 22 22 23 23 25 25 24 24 23 23 23 22 21 21 21 21 20 20 20 20 21 21 21 21 22 23 23 22 22 22 22 22 23 23 23 23 24 24 25 25 26 26
22 23 23 24 25 25 24 23 24 24 24 24 23 21 20 20 20 20 20 21 22 22 22 22 22 23 23 23 23 23 23 23 23 24 24 24 24 24 24 25 25 25 25
23 23 24 25 25 24 24 24 24 23 24 24 22 20 20 21 21 21 21 21 22 22 23 23 23 23 23 23 24 24 24 24 24 25 25 25 25 25 25 26 25 25 25
22 24 25 25 26 25 25 25 25 25 24 23 22 20 19 20 21 22 21 21 22 22 23 23 24 23 23 24 24 25 25 25 24 25 26 26 27 26 26 27 26 25 26
24 26 26 25 25 25 24 23 22 23 22 22 20 20 21 21 22 22 22 24 24 24 24 23 23 23 23 24 24 25 25 25 24 25 25 26 26 26 27 27 27 27 27
24 25 25 25 25 25 24 23 22 21 21 21 20 20 20 21 22 23 23 23 24 24 23 23 23 23 24 24 25 26 26 25 25 25 25 26 25 26 27 28 27 27 28
24 24 24 24 24 24 23 22 21 20 20 20 20 20 20 21 22 23 22 22 23 23 22 22 22 23 23 24 25 25 25 25 25 25 25 25 25 26 26 27 28 28 28
21 22 22 22 22 22 21 20 20 20 21 20 20 20 20 20 21 21 21 22 22 22 21 22 23 23 24 24 24 24 24 24 24 24 24 24 24 25 26 27 28 28 28

GEFSSE_500_meanwind_228.txt.gz
Wind_Speed
10 9 9 10 10 10 9 9 8 8 8 8 9 9 9 9 10 11 11 10 9 9 9 9 9 8 8 8 8 8 8 8 8 9 9 10 10 11 11 11 11 11 12
9 9 9 10 10 11 10 9 9 9 9 9 9 10 10 10 11 11 11 11 10 10 9 9 10 9 9 9 9 9 10 10 10 10 11 11 11 12 12 12 12 12 13
10 10 10 10 11 11 11 10 10 10 10 10 10 10 10 11 11 11 11 11 11 11 10 10 10 10 10 10 10 10 11 11 12 12 13 13 13 13 14 14 14 14 14
12 11 11 10 10 10 10 10 10 10 10 10 11 11 11 11 11 11 11 11 12 12 11 11 11 11 11 11 11 11 11 13 13 13 14 14 14 14 15 15 15 15 15
12 12 11 10 10 10 10 11 11 11 11 11 11 11 11 11 11 11 11 11 12 12 12 12 11 12 12 12 12 12 12 13 14 15 15 16 15 15 15 16 16 16 16
13 13 13 12 11 10 10 10 11 11 12 11 11 11 11 12 12 13 12 12 12 12 12 12 12 12 12 13 13 13 14 14 15 15 16 15 15 15 16 17 17 17 17
14 14 14 13 12 11 11 11 12 12 12 12 12 12 12 13 13 14 13 13 13 13 13 14 13 13 13 14 14 15 15 15 16 16 16 16 16 16 16 17 18 19 19
15 14 14 14 13 13 13 12 12 13 13 13 13 13 14 14 15 15 15 13 14 14 13 13 13 14 14 14 15 16 16 16 16 16 17 17 17 17 18 19 19 20 20
18 16 14 14 13 13 13 13 14 14 14 14 15 15 16 16 16 16 16 16 14 14 14 14 14 14 15 15 16 16 17 17 16 16 17 17 18 18 18 19 20 20 20
17 17 14 14 14 14 15 15 15 15 16 17 16 17 17 17 17 16 16 16 16 15 15 15 15 15 16 16 17 17 18 18 17 17 17 17 18 18 18 19 19 20 20
17 17 16 16 16 16 16 16 17 16 17 18 17 18 19 18 18 16 16 16 16 15 15 15 15 15 16 17 17 17 17 18 17 17 17 16 17 17 18 18 18 19 20
18 19 18 17 18 17 18 18 19 18 18 18 18 18 19 19 18 18 18 17 16 16 16 16 16 16 16 17 17 17 17 17 17 17 17 17 17 17 18 18 19 19 20
18 19 19 19 19 19 19 19 20 19 19 19 19 19 19 19 18 18 19 18 18 17 17 17 16 16 17 17 17 17 17 17 17 16 17 18 18 18 19 19 20 20 20
19 20 18 19 19 20 20 20 20 20 20 20 20 21 20 19 19 19 20 20 19 18 18 18 17 17 17 18 18 17 17 17 17 17 18 18 19 19 20 20 20 20 21
20 20 19 21 21 21 21 22 21 21 21 22 23 23 23 23 21 22 21 21 20 19 19 18 19 19 18 18 18 19 18 17 18 19 19 19 19 20 20 20 20 21 21
19 20 20 21 21 21 22 22 22 23 24 24 24 24 24 24 23 23 21 21 20 20 20 19 20 20 19 19 19 19 20 19 19 19 20 20 20 19 20 20 20 21 21
19 19 20 20 21 21 22 22 22 23 23 23 23 24 25 24 23 22 21 21 21 20 20 19 20 20 20 20 20 20 20 20 20 20 20 20 20 20 20 21 21 22 22
20 19 21 22 22 22 22 22 22 23 23 23 24 24 24 23 23 23 22 21 21 21 20 20 21 21 21 21 20 20 21 21 21 21 21 21 21 21 21 21 22 22 23
21 21 22 23 23 23 23 22 23 23 24 25 26 25 25 24 24 24 23 22 22 21 21 21 22 23 23 22 22 22 22 22 21 21 21 22 22 22 22 22 23 23 23
23 23 23 24 25 24 24 24 24 25 25 26 27 27 26 24 25 24 23 23 22 22 22 23 23 23 23 23 23 23 22 22 22 22 22 23 23 23 23 24 24 24 24
23 24 24 25 25 25 25 26 26 26 26 26 27 27 26 25 24 24 23 22 22 22 23 23 23 23 23 24 24 23 23 23 23 23 23 23 24 24 24 24 24 24 25
23 24 25 25 26 25 25 26 26 27 26 26 26 26 26 25 24 24 22 22 23 23 23 23 24 24 24 24 24 24 23 23 24 24 24 24 24 24 24 25 25 25 24
24 24 25 25 25 25 25 25 25 25 25 25 24 25 24 24 24 23 23 23 24 24 24 25 25 25 25 25 25 25 24 24 23 24 24 24 24 24 24 25 25 24 24
24 24 24 24 24 24 24 24 24 24 24 24 24 23 22 22 23 23 23 24 24 24 25 24 24 25 26 25 24 25 25 25 25 24 24 24 24 25 24 24 24 24 25
23 23 23 22 22 22 22 22 23 23 23 23 22 22 22 22 21 21 20 20 21 22 23 23 23 24 25 25 25 25 24 25 26 26 25 25 25 25 24 25 25 26 26
21 21 20 20 19 19 20 21 22 22 22 22 21 21 21 21 21 19 19 20 20 21 22 23 23 23 24 24 24 25 25 26 26 26 26 26 25 25 26 26 26 26 27

GEFSSE_500_meanwind_234.txt.gz
Wind_Speed
10 9 8 8 9 9 9 9 10 10 10 10 10 10 10 10 11 11 11 12 12 12 11 11 11 11 11 11 11 11 11 11 10 10 11 11 11 11 11 10 10 10 10
10 10 10 9 10 10 10 10 10 11 11 10 10 10 10 10 10 11 12 12 12 13 13 12 12 12 12 12 12 12 12 12 12 12 12 12 12 11 12 12 12 12 11
11 11 12 11 10 11 11 11 11 10 11 11 10 10 10 10 11 11 12 12 12 13 13 13 13 13 13 13 13 13 13 13 12 13 13 13 13 13 13 13 13 13 13
11 11 11 11 10 10 10 10 10 10 11 11 10 10 11 11 11 12 12 12 12 13 14 14 14 14 14 14 14 14 14 14 13 13 13 13 13 13 14 14 13 14 14
11 11 11 11 11 10 10 10 10 11 11 11 11 11 11 12 12 12 12 12 13 13 14 14 14 15 15 15 15 15 14 14 14 14 13 13 14 14 14 15 14 15 15
12 12 12 11 11 11 11 11 11 11 11 11 11 12 12 13 13 13 13 13 14 14 14 14 14 15 16 16 16 16 15 15 15 15 14 14 14 15 15 15 15 16 16
13 13 13 12 12 11 12 12 13 13 13 12 12 13 13 14 14 15 14 14 14 14 15 15 15 15 16 16 17 17 16 16 16 15 15 15 15 16 16 16 16 17 17
15 14 14 12 11 11 12 13 14 14 14 14 14 14 14 15 16 16 15 15 15 15 15 15 15 15 15 16 17 17 17 17 17 17 16 16 16 17 17 17 17 18 18
16 16 15 14 14 12 12 13 14 14 14 14 15 15 14 15 15 15 15 16 16 16 16 16 16 16 16 16 17 17 17 18 18 18 18 17 17 18 18 18 17 18 18
16 16 15 15 14 13 13 13 14 15 15 15 15 15 15 15 16 16 16 16 17 17 17 16 16 16 16 17 17 17 17 17 17 18 18 18 19 18 18 18 18 18 19
16 16 15 15 15 14 14 15 15 17 16 15 16 16 16 16 17 17 17 18 18 18 18 18 17 16 16 17 17 17 18 18 17 17 18 18 19 18 18 18 18 18 19
17 17 16 17 18 17 16 16 16 17 17 17 17 17 17 18 18 18 18 18 17 17 18 18 17 17 17 17 18 18 18 18 17 18 18 19 19 19 19 19 19 19 19
17 17 16 17 18 18 17 17 17 18 18 18 19 19 19 19 20 18 18 18 19 18 17 18 18 18 18 19 19 18 19 18 18 18 19 19 19 20 20 20 20 20 20
18 17 17 17 17 18 18 18 18 18 18 19 20 20 20 20 20 19 18 18 19 19 18 19 19 19 19 19 18 18 19 19 19 19 19 19 20 20 20 20 20 20 21
18 18 18 18 18 19 19 19 18 18 18 19 20 20 21 20 20 20 19 19 20 19 19 20 19 18 19 19 20 19 20 20 20 20 20 20 20 21 20 20 20 21 21
18 19 19 19 19 19 19 19 18 19 19 19 20 21 20 19 19 19 21 21 21 20 20 20 18 18 18 20 20 20 21 21 21 21 21 21 21 21 20 21 21 21 22
18 18 18 18 19 19 20 20 20 20 20 21 20 20 20 20 20 20 21 22 21 21 21 20 19 19 19 20 21 22 22 22 22 21 22 21 21 21 21 21 21 22 22
18 18 17 17 18 19 20 19 20 21 21 21 20 20 21 20 20 21 22 22 22 21 21 21 20 21 21 22 22 22 22 22 22 22 22 21 21 21 21 21 22 22 22
19 19 19 18 18 19 20 21 21 22 21 21 21 21 21 21 21 22 22 22 22 22 21 21 21 22 22 21 22 22 22 21 22 22 22 22 21 22 21 22 22 23 23
21 20 20 20 20 20 21 21 22 22 22 21 21 21 22 22 22 23 23 23 22 21 21 21 22 22 22 22 22 22 21 21 22 23 22 22 22 22 22 23 23 24 24
21 20 20 20 21 21 21 22 22 22 23 22 22 22 22 22 23 23 23 23 23 23 22 22 22 22 22 22 22 22 22 22 22 22 22 22 22 23 24 24 25 25 24
21 20 21 21 21 22 23 23 21 21 22 22 22 23 23 22 23 22 22 23 23 23 22 22 21 21 22 22 23 23 23 23 23 23 23 23 23 24 24 25 25 26 25
22 21 20 19 19 19 20 20 20 20 20 20 21 21 22 22 22 22 22 22 23 22 22 22 21 22 21 23 24 25 24 23 24 24 24 24 24 24 25 26 26 27 27
22 21 21 19 19 19 19 19 18 18 18 18 19 19 21 21 21 21 21 21 22 22 21 21 22 22 21 22 23 25 24 24 25 24 25 26 26 25 26 26 26 27 28
21 21 20 19 17 17 17 17 16 16 16 17 18 19 19 20 20 20 21 21 21 21 22 21 22 22 22 21 22 23 24 25 25 24 24 25 25 26 26 26 26 27 27
19 17 16 15 16 16 16 16 16 16 16 17 18 18 19 20 20 20 20 19 19 20 21 21 21 22 22 21 22 22 23 24 25 25 25 24 24 25 26 26 27 27 27

GEFSSE_500_meanwind_240.txt.gz
Wind_Speed
10 10 10 10 9 8 8 8 8 8 8 8 7 8 7 8 8 8 8 9 9 9 9 10 10 10 10 10 10 9 9 10 10 10 10 10 10 10 10 9 9 9 9
10 10 11 11 11 10 10 9 10 9 9 8 8 8 8 8 9 9 9 9 9 10 10 10 10 10 10 11 11 11 11 11 11 10 10 10 10 11 10 10 10 10 9
11 11 12 12 11 11 11 11 10 10 9 8 8 8 9 9 9 9 9 9 10 10 11 11 11 11 11 12 12 12 12 12 12 12 11 11 11 11 11 11 11 11 11
12 11 12 12 11 11 11 11 10 9 9 9 10 10 10 10 10 10 10 10 11 11 11 11 11 12 12 13 13 13 13 13 13 12 12 11 11 11 11 11 12 12 12
13 12 12 12 11 11 11 11 10 10 10 10 10 11 11 11 11 11 11 11 12 12 12 11 12 13 13 13 13 13 13 12 12 12 12 12 11 11 11 11 12 12 13
14 13 12 12 11 11 10 11 11 11 11 11 11 11 11 11 11 12 12 13 13 13 13 12 12 13 13 13 14 14 14 13 13 13 13 12 12 12 12 12 13 13 13
14 13 13 13 13 12 11 11 12 12 12 12 12 12 12 12 13 13 14 14 14 14 14 14 14 14 14 14 14 13 13 14 14 14 13 13 13 13 13 13 14 14 14
15 15 14 14 13 12 13 13 12 12 13 13 13 13 14 14 14 14 15 15 15 15 15 15 16 16 15 15 14 14 14 14 14 14 14 14 14 14 14 15 15 15 15
16 15 15 15 14 14 14 14 14 14 14 14 14 14 15 15 15 15 16 15 16 16 16 16 16 16 16 16 16 15 15 16 15 15 15 15 16 15 15 16 16 16 16
16 15 15 15 15 15 15 15 14 14 15 15 15 15 16 16 16 17 17 17 17 18 17 17 17 16 16 16 17 17 16 16 16 16 16 16 17 17 17 16 16 16 17
15 14 15 16 15 16 16 16 15 15 15 15 16 17 17 17 17 18 19 18 18 18 18 18 18 17 17 18 18 18 17 17 17 17 17 17 17 17 17 17 17 17 17
15 15 15 14 15 15 15 15 15 15 16 16 17 18 18 18 19 19 19 19 19 19 20 19 18 19 18 19 19 19 19 19 19 19 18 18 18 18 18 18 18 18 18
15 16 17 15 15 15 15 15 15 16 16 18 19 18 19 19 20 20 20 20 20 20 21 21 20 20 20 20 20 20 20 20 21 21 20 19 19 19 19 19 20 20 20
14 15 16 16 16 15 15 15 15 16 17 19 19 20 19 20 20 21 20 21 21 21 21 21 20 21 21 21 21 21 21 20 21 21 20 20 20 20 20 20 20 20 20
15 15 16 17 17 17 16 16 16 16 17 19 19 20 21 21 21 22 22 21 22 23 23 23 23 22 21 21 21 22 22 22 22 21 21 20 20 20 21 21 21 21 21
16 16 17 17 17 17 17 17 17 18 18 19 20 21 22 22 22 22 23 23 23 24 24 24 24 23 22 22 22 22 22 22 23 22 21 21 21 21 21 22 21 21 21
16 16 18 18 17 16 17 17 18 19 19 20 21 22 22 23 24 24 23 23 24 24 25 25 25 26 24 23 23 23 22 22 22 22 21 21 21 21 21 22 22 22 22
17 17 19 20 18 17 18 18 19 20 21 21 22 22 22 23 23 24 23 24 24 24 24 25 26 26 25 23 23 23 23 22 22 23 22 22 22 22 22 22 23 22 22
19 18 20 20 19 19 18 19 20 21 21 21 22 22 21 22 23 23 23 24 25 26 26 26 26 25 25 24 24 24 24 23 23 24 23 22 22 23 23 23 23 23 22
19 19 20 19 19 19 19 19 20 21 21 21 21 22 22 22 22 23 23 24 25 25 26 26 26 25 25 25 25 24 25 24 24 24 24 24 23 24 24 24 24 24 24
19 19 19 19 19 19 18 18 20 20 20 21 22 22 21 21 22 22 22 23 23 23 25 26 27 26 26 26 25 25 24 24 24 24 24 24 25 25 25 25 25 26 25
20 19 19 19 19 18 17 18 20 20 19 20 20 20 20 21 22 22 22 23 23 24 23 24 25 26 26 26 26 25 24 25 25 24 24 23 24 25 25 25 26 26 27
20 20 20 19 18 18 19 20 20 18 18 18 19 19 20 21 21 21 22 22 23 23 23 24 25 26 26 26 25 25 25 24 24 24 24 24 25 25 25 27 27 26 27
20 20 20 19 18 18 19 20 19 18 18 18 19 19 20 20 20 20 20 21 22 22 22 23 24 25 26 26 25 25 24 23 24 24 24 24 25 26 26 26 28 27 27
19 20 19 19 19 19 19 19 19 18 17 18 18 19 20 19 19 18 19 20 20 21 22 22 24 24 24 25 25 24 24 24 24 25 25 25 25 26 26 27 28 28 28
19 20 20 19 18 18 19 19 19 17 17 17 18 18 18 19 19 19 19 20 20 21 21 22 22 22 22 23 24 24 24 25 25 25 26 26 25 25 26 27 29 29 29